KC5DAQ-22 Weather Reports


time (UTC)temp
C
wind
direction
speed
KPH
gust
KPH
rain 1hr
cm
rain 24hr
cm
rain mn
cm
humidity
%
barometer
mb
20260901040802 29 73 4.8 9.7 0.00 0.00 0.00 79 1013.3
20260901040701 29 73 4.8 11.3 0.00 0.00 0.00 79 1013.3
20260901040559 29 73 6.4 11.3 0.00 0.00 0.00 79 1013.3
20260901040459 29 89 4.8 11.3 0.00 0.00 0.00 79 1013.3
20260901040355 29 87 4.8 11.3 0.00 0.00 0.00 79 1013.3
20260901040254 29 72 4.8 11.3 0.00 0.00 0.00 79 1013.3
20260901040153 29 83 4.8 11.3 0.00 0.00 0.00 79 1013.2
20260901040053 29 83 6.4 11.3 0.00 0.00 0.00 79 1013.3
20260901035951 29 82 6.4 11.3 0.00 0.00 0.00 79 1013.2
20260901035851 29 76 8.0 11.3 0.00 0.00 0.00 79 1013.2
20260901035751 29 54 6.4 11.3 0.00 0.00 0.00 79 1013.2
20260901035652 29 82 4.8 11.3 0.00 0.00 0.00 79 1013.2
20260901035550 29 76 4.8 11.3 0.00 0.00 0.00 79 1013.2
20260901035450 29 82 6.4 11.3 0.00 0.00 0.00 79 1013.1
20260901035352 29 82 6.4 11.3 0.00 0.00 0.00 79 1013.1
20260901035251 29 102 6.4 11.3 0.00 0.00 0.00 79 1013.1
20260901035150 29 118 6.4 11.3 0.00 0.00 0.00 79 1013.1
20260901035050 29 89 6.4 11.3 0.00 0.00 0.00 79 1013.2
20260901034950 29 103 4.8 11.3 0.00 0.00 0.00 79 1013.1
20260901034852 29 72 6.4 11.3 0.00 0.00 0.00 79 1013.1
20260901034750 29 97 8.0 11.3 0.00 0.00 0.00 79 1013.1
20260901034651 29 89 8.0 11.3 0.00 0.00 0.00 79 1013.0
20260901034550 29 90 6.4 9.7 0.00 0.00 0.00 79 1013.1
20260901034451 29 82 6.4 9.7 0.00 0.00 0.00 78 1013.1
20260901034352 29 97 6.4 9.7 0.00 0.00 0.00 78 1013.0
20260901034250 29 100 6.4 9.7 0.00 0.00 0.00 78 1013.1
20260901034149 29 110 6.4 9.7 0.00 0.00 0.00 78 1013.0
20260901034050 29 113 6.4 9.7 0.00 0.00 0.00 78 1013.0
20260901033952 29 87 6.4 9.7 0.00 0.00 0.00 78 1013.0
20260901033851 29 107 6.4 8.0 0.00 0.00 0.00 78 1013.0
20260901033751 29 86 6.4 9.7 0.00 0.00 0.00 78 1013.0
20260901033650 29 104 6.4 9.7 0.00 0.00 0.00 78 1012.9
20260901033550 29 117 4.8 9.7 0.00 0.00 0.00 78 1012.9
20260901033450 29 99 6.4 9.7 0.00 0.00 0.00 78 1013.0
20260901033350 29 107 6.4 9.7 0.00 0.00 0.00 78 1012.9
20260901033251 29 103 6.4 9.7 0.00 0.00 0.00 78 1012.8
20260901033151 29 117 6.4 9.7 0.00 0.00 0.00 78 1012.9
20260901033049 29 110 6.4 9.7 0.00 0.00 0.00 78 1012.9
20260901032950 29 109 6.4 9.7 0.00 0.00 0.00 78 1012.9
20260901032849 29 114 6.4 9.7 0.00 0.00 0.00 78 1012.9
20260901032749 29 110 6.4 8.0 0.00 0.00 0.00 78 1012.9
20260901032650 29 110 4.8 8.0 0.00 0.00 0.00 78 1012.9
20260901032550 29 106 4.8 8.0 0.00 0.00 0.00 78 1012.8
20260901032449 29 113 4.8 8.0 0.00 0.00 0.00 78 1012.8
20260901032349 29 109 6.4 8.0 0.00 0.00 0.00 78 1012.8
20260901032249 29 109 6.4 8.0 0.00 0.00 0.00 78 1012.9
20260901032149 29 111 6.4 8.0 0.00 0.00 0.00 78 1012.8
20260901032050 29 120 6.4 8.0 0.00 0.00 0.00 78 1012.9
20260901031949 29 114 4.8 8.0 0.00 0.00 0.00 78 1012.8
20260901031851 29 110 4.8 8.0 0.00 0.00 0.00 79 1012.9
20260901031749 29 107 4.8 8.0 0.00 0.00 0.00 79 1012.9
20260901031649 29 109 6.4 8.0 0.00 0.00 0.00 79 1012.8
20260901031550 29 99 4.8 8.0 0.00 0.00 0.00 79 1012.8
20260901031450 29 104 4.8 8.0 0.00 0.00 0.00 79 1012.8
20260901031349 29 113 4.8 8.0 0.00 0.00 0.00 79 1012.9
20260901031249 29 111 4.8 8.0 0.00 0.00 0.00 79 1012.9
20260901031152 29 111 6.4 8.0 0.00 0.00 0.00 79 1012.9
20260901031050 29 111 4.8 6.4 0.00 0.00 0.00 79 1012.9
20260901030949 29 114 4.8 6.4 0.00 0.00 0.00 79 1012.9
20260901030850 29 113 4.8 6.4 0.00 0.00 0.00 79 1012.8
20260901030750 29 116 3.2 6.4 0.00 0.00 0.00 79 1012.8
20260901030649 29 128 1.6 3.2 0.00 0.00 0.00 79 1012.8
20260901030549 29 134 1.6 4.8 0.00 0.00 0.00 80 1012.7
20260901030450 29 134 1.6 4.8 0.00 0.00 0.00 79 1012.7
20260901030349 29 135 1.6 4.8 0.00 0.00 0.00 79 1012.7
20260901030250 29 135 3.2 4.8 0.00 0.00 0.00 79 1012.6
20260901030149 29 135 3.2 4.8 0.00 0.00 0.00 79 1012.6
20260901030049 29 135 3.2 4.8 0.00 0.00 0.00 79 1012.5
20260901025949 29 135 1.6 4.8 0.00 0.00 0.00 79 1012.6
20260901025850 29 135 1.6 4.8 0.00 0.00 0.00 79 1012.6
20260901025751 29 135 3.2 4.8 0.00 0.00 0.00 79 1012.5
20260901025649 29 135 1.6 4.8 0.00 0.00 0.00 79 1012.5
20260901025548 29 134 0.0 3.2 0.00 0.00 0.00 79 1012.5
20260901025449 29 134 0.0 3.2 0.00 0.00 0.00 79 1012.4
20260901025348 29 0 0.0 3.2 0.00 0.00 0.00 79 1012.4
20260901025250 29 58 1.6 3.2 0.00 0.00 0.00 79 1012.4
20260901025151 29 0 1.6 3.2 0.00 0.00 0.00 79 1012.3
20260901025049 29 0 1.6 3.2 0.00 0.00 0.00 79 1012.3
20260901024949 29 0 0.0 3.2 0.00 0.00 0.00 79 1012.4
20260901024849 29 0 0.0 3.2 0.00 0.00 0.00 79 1012.3
20260901024751 29 0 0.0 3.2 0.00 0.00 0.00 79 1012.2
20260901024648 29 59 0.0 3.2 0.00 0.00 0.00 79 1012.2
20260901024550 29 61 0.0 3.2 0.00 0.00 0.00 79 1012.1
20260901024449 29 61 1.6 4.8 0.00 0.00 0.00 79 1012.1
20260901024349 29 61 1.6 4.8 0.00 0.00 0.00 79 1012.1
20260901024250 29 0 1.6 4.8 0.00 0.00 0.00 79 1012.1
20260901024149 29 0 0.0 4.8 0.00 0.00 0.00 79 1012.1
20260901024050 29 62 0.0 4.8 0.00 0.00 0.00 79 1012.1
20260901023949 29 62 0.0 4.8 0.00 0.00 0.00 79 1012.1
20260901023849 29 62 0.0 4.8 0.00 0.00 0.00 79 1012.1
20260901023749 29 0 1.6 4.8 0.00 0.00 0.00 79 1012.1
20260901023648 29 0 1.6 4.8 0.00 0.00 0.00 79 1012.1
20260901023548 29 0 3.2 4.8 0.00 0.00 0.00 79 1012.1
20260901023448 29 0 1.6 4.8 0.00 0.00 0.00 79 1012.1
20260901023349 29 62 3.2 4.8 0.00 0.00 0.00 79 1012.1
20260901023248 29 62 3.2 4.8 0.00 0.00 0.00 79 1012.1
20260901023148 29 61 3.2 4.8 0.00 0.00 0.00 78 1012.2
20260901023049 29 62 3.2 4.8 0.00 0.00 0.00 78 1012.1
20260901022948 29 59 3.2 4.8 0.00 0.00 0.00 78 1012.1
20260901022849 29 59 3.2 4.8 0.00 0.00 0.00 78 1012.1
20260901022748 29 59 3.2 4.8 0.00 0.00 0.00 78 1012.1
20260901022650 29 59 1.6 4.8 0.00 0.00 0.00 78 1012.0
20260901022549 29 0 3.2 4.8 0.00 0.00 0.00 78 1012.0
20260901022449 29 59 3.2 4.8 0.00 0.00 0.00 78 1012.0
20260901022349 29 59 1.6 4.8 0.00 0.00 0.00 78 1012.1
20260901022248 29 59 3.2 4.8 0.00 0.00 0.00 78 1012.0
20260901022148 29 59 3.2 4.8 0.00 0.00 0.00 78 1012.0
20260901022047 29 0 1.6 4.8 0.00 0.00 0.00 78 1012.1
20260901021949 29 59 1.6 4.8 0.00 0.00 0.00 78 1012.0
20260901021849 29 59 3.2 4.8 0.00 0.00 0.00 78 1012.1
20260901021749 29 59 3.2 4.8 0.00 0.00 0.00 78 1012.0
20260901021648 29 59 1.6 4.8 0.00 0.00 0.00 78 1012.0
20260901021548 29 59 1.6 4.8 0.00 0.00 0.00 78 1011.9
20260901021448 29 61 0.0 4.8 0.00 0.00 0.00 78 1012.0
20260901021348 29 59 1.6 4.8 0.00 0.00 0.00 78 1012.0
20260901021249 29 59 3.2 4.8 0.00 0.00 0.00 78 1011.9
20260901021148 29 61 3.2 4.8 0.00 0.00 0.00 78 1011.9
20260901021048 29 0 3.2 4.8 0.00 0.00 0.00 78 1011.9
20260901020949 29 59 1.6 4.8 0.00 0.00 0.00 78 1011.8
20260901020848 29 59 1.6 4.8 0.00 0.00 0.00 78 1011.8
20260901020748 29 59 1.6 4.8 0.00 0.00 0.00 78 1011.9
20260901020648 29 61 3.2 4.8 0.00 0.00 0.00 78 1011.8
20260901020549 29 58 3.2 4.8 0.00 0.00 0.00 78 1011.8
20260901020447 30 59 3.2 4.8 0.00 0.00 0.00 78 1011.9
20260901020345 29 58 3.2 4.8 0.00 0.00 0.00 78 1011.8
20260901020243 29 59 3.2 4.8 0.00 0.00 0.00 78 1011.8
20260901020141 29 58 1.6 4.8 0.00 0.00 0.00 78 1011.8
20260901020040 29 58 1.6 4.8 0.00 0.00 0.00 78 1011.8
20260901015939 29 59 1.6 4.8 0.00 0.00 0.00 78 1011.8
20260901015838 30 59 3.2 4.8 0.00 0.00 0.00 78 1011.7
20260901015736 30 69 3.2 4.8 0.00 0.00 0.00 78 1011.8
20260901015632 30 69 1.6 4.8 0.00 0.00 0.00 78 1011.7
20260901015531 30 63 1.6 4.8 0.00 0.00 0.00 78 1011.7
20260901015431 30 65 1.6 4.8 0.00 0.00 0.00 78 1011.7
20260901015332 30 63 1.6 4.8 0.00 0.00 0.00 78 1011.7
20260901015231 30 63 3.2 4.8 0.00 0.00 0.00 77 1011.7
20260901015132 30 63 3.2 4.8 0.00 0.00 0.00 77 1011.7
20260901015032 30 61 3.2 4.8 0.00 0.00 0.00 77 1011.7
20260901014931 30 62 3.2 4.8 0.00 0.00 0.00 77 1011.6
20260901014831 30 63 1.6 4.8 0.00 0.00 0.00 77 1011.7
20260901014731 30 69 1.6 4.8 0.00 0.00 0.00 77 1011.6
20260901014631 30 71 1.6 4.8 0.00 0.00 0.00 76 1011.6
20260901014531 30 71 0.0 6.4 0.00 0.00 0.00 76 1011.6
20260901014431 30 71 0.0 6.4 0.00 0.00 0.00 76 1011.6
20260901014331 30 73 0.0 6.4 0.00 0.00 0.00 76 1011.6
20260901014232 30 73 0.0 6.4 0.00 0.00 0.00 76 1011.5
20260901014133 30 73 0.0 6.4 0.00 0.00 0.00 75 1011.5
20260901014031 30 73 1.6 6.4 0.00 0.00 0.00 75 1011.5
20260901013931 30 72 3.2 6.4 0.00 0.00 0.00 75 1011.4
20260901013831 30 73 3.2 6.4 0.00 0.00 0.00 75 1011.5
20260901013733 30 87 3.2 6.4 0.00 0.00 0.00 75 1011.5
20260901013631 30 0 3.2 6.4 0.00 0.00 0.00 75 1011.6
20260901013532 30 89 1.6 6.4 0.00 0.00 0.00 75 1011.5
20260901013432 30 90 1.6 6.4 0.00 0.00 0.00 75 1011.6
20260901013332 30 92 3.2 6.4 0.00 0.00 0.00 75 1011.6
20260901013231 30 93 3.2 6.4 0.00 0.00 0.00 75 1011.6
20260901013130 30 0 3.2 4.8 0.00 0.00 0.00 75 1011.6
20260901013031 30 93 3.2 4.8 0.00 0.00 0.00 75 1011.5
20260901012931 30 94 1.6 4.8 0.00 0.00 0.00 75 1011.5
20260901012832 30 94 1.6 4.8 0.00 0.00 0.00 75 1011.5
20260901012730 30 97 1.6 4.8 0.00 0.00 0.00 75 1011.6
20260901012631 30 69 0.0 4.8 0.00 0.00 0.00 75 1011.5
20260901012531 30 69 0.0 4.8 0.00 0.00 0.00 75 1011.5
20260901012433 30 69 0.0 4.8 0.00 0.00 0.00 75 1011.4
20260901012331 30 71 0.0 4.8 0.00 0.00 0.00 75 1011.6
20260901012231 30 71 1.6 6.4 0.00 0.00 0.00 75 1011.5
20260901012132 30 71 1.6 6.4 0.00 0.00 0.00 75 1011.5
20260901012032 30 85 1.6 6.4 0.00 0.00 0.00 75 1011.5
20260901011931 30 86 1.6 6.4 0.00 0.00 0.00 75 1011.5
20260901011831 30 75 1.6 6.4 0.00 0.00 0.00 75 1011.5
20260901011732 30 72 3.2 6.4 0.00 0.00 0.00 75 1011.5
20260901011631 30 68 3.2 6.4 0.00 0.00 0.00 74 1011.6
20260901011531 30 68 3.2 6.4 0.00 0.00 0.00 75 1011.6
20260901011429 30 66 3.2 6.4 0.00 0.00 0.00 74 1011.6
20260901011326 30 71 4.8 6.4 0.00 0.00 0.00 74 1011.6
20260901011225 30 68 3.2 6.4 0.00 0.00 0.00 74 1011.6
20260901011123 30 80 1.6 6.4 0.00 0.00 0.00 74 1011.5
20260901011022 30 80 3.2 6.4 0.00 0.00 0.00 74 1011.5
20260901010922 30 66 3.2 6.4 0.00 0.00 0.00 74 1011.5
20260901010819 30 69 3.2 6.4 0.00 0.00 0.00 74 1011.5
20260901010718 30 128 4.8 8.0 0.00 0.00 0.00 74 1011.6
20260901010616 30 102 4.8 8.0 0.00 0.00 0.00 74 1011.7
20260901010514 30 142 3.2 8.0 0.00 0.00 0.00 74 1011.5
20260901010412 30 131 1.6 8.0 0.00 0.00 0.00 74 1011.5
20260901010311 30 135 3.2 8.0 0.00 0.00 0.00 74 1011.6
20260901010210 30 133 3.2 8.0 0.00 0.00 0.00 73 1011.6
20260901010108 30 161 1.6 8.0 0.00 0.00 0.00 73 1011.6
20260901010007 30 166 1.6 8.0 0.00 0.00 0.00 73 1011.6
20260901005906 30 179 3.2 8.0 0.00 0.00 0.00 73 1011.6
20260901005804 31 180 4.8 8.0 0.00 0.00 0.00 73 1011.7
20260901005704 31 161 4.8 9.7 0.00 0.00 0.00 73 1011.6
20260901005602 31 162 4.8 9.7 0.00 0.00 0.00 73 1011.6
20260901005502 31 144 4.8 9.7 0.00 0.00 0.00 73 1011.6
20260901005402 31 128 4.8 9.7 0.00 0.00 0.00 73 1011.6
20260901005306 31 138 4.8 9.7 0.00 0.00 0.00 73 1011.6
20260901005202 31 140 4.8 9.7 0.00 0.00 0.00 73 1011.6
20260901005103 31 148 4.8 11.3 0.00 0.00 0.00 73 1011.6
20260901005004 31 138 4.8 11.3 0.00 0.00 0.00 73 1011.6
20260901004901 31 166 4.8 11.3 0.00 0.00 0.00 73 1011.7
20260901004802 31 159 4.8 11.3 0.00 0.00 0.00 73 1011.7
20260901004703 31 87 3.2 11.3 0.00 0.00 0.00 73 1011.6
20260901004602 31 145 4.8 11.3 0.00 0.00 0.00 73 1011.7
20260901004502 31 144 3.2 11.3 0.00 0.00 0.00 72 1011.7
20260901004403 31 165 3.2 11.3 0.00 0.00 0.00 72 1011.6
20260901004302 31 176 6.4 11.3 0.00 0.00 0.00 72 1011.7
20260901004203 31 173 6.4 11.3 0.00 0.00 0.00 72 1011.6
20260901004102 31 172 3.2 9.7 0.00 0.00 0.00 72 1011.7
20260901004003 31 161 3.2 9.7 0.00 0.00 0.00 72 1011.7
20260901003902 31 140 4.8 9.7 0.00 0.00 0.00 72 1011.7
20260901003803 31 154 3.2 9.7 0.00 0.00 0.00 72 1011.6
20260901003703 31 168 3.2 9.7 0.00 0.00 0.00 72 1011.7
20260901003602 31 148 4.8 9.7 0.00 0.00 0.00 72 1011.6
20260901003502 31 134 4.8 9.7 0.00 0.00 0.00 71 1011.6
20260901003404 31 220 4.8 9.7 0.00 0.00 0.00 71 1011.6
20260901003302 31 148 6.4 9.7 0.00 0.00 0.00 71 1011.6
20260901003204 31 128 4.8 8.0 0.00 0.00 0.00 71 1011.7
20260901003103 31 147 3.2 8.0 0.00 0.00 0.00 71 1011.6
20260901003004 31 169 3.2 8.0 0.00 0.00 0.00 71 1011.7
20260901002902 31 118 3.2 8.0 0.00 0.00 0.00 71 1011.6
20260901002802 31 120 3.2 8.0 0.00 0.00 0.00 71 1011.7
20260901002704 31 161 3.2 8.0 0.00 0.00 0.00 70 1011.7
20260901002603 31 130 3.2 8.0 0.00 0.00 0.00 70 1011.7
20260901002503 31 110 3.2 8.0 0.00 0.00 0.00 70 1011.7
20260901002402 31 131 3.2 8.0 0.00 0.00 0.00 70 1011.7
20260901002305 31 127 3.2 8.0 0.00 0.00 0.00 70 1011.6
20260901002202 31 145 1.6 8.0 0.00 0.00 0.00 70 1011.6
20260901002102 32 144 3.2 8.0 0.00 0.00 0.00 70 1011.6
20260901002003 32 125 4.8 8.0 0.00 0.00 0.00 70 1011.6
20260901001903 32 162 3.2 8.0 0.00 0.00 0.00 70 1011.5
20260901001802 32 233 3.2 8.0 0.00 0.00 0.00 70 1011.6
20260901001702 32 257 4.8 8.0 0.00 0.00 0.00 69 1011.5
20260901001602 32 158 3.2 8.0 0.00 0.00 0.00 69 1011.6
20260901001503 32 183 1.6 9.7 0.00 0.00 0.00 70 1011.6
20260901001402 32 114 3.2 9.7 0.00 0.00 0.00 70 1011.6
20260901001303 32 117 3.2 9.7 0.00 0.00 0.00 70 1011.6
20260901001202 32 107 3.2 9.7 0.00 0.00 0.00 70 1011.6
20260901001102 32 135 3.2 9.7 0.00 0.00 0.00 69 1011.6
20260901001004 32 118 3.2 9.7 0.00 0.00 0.00 69 1011.6
20260901000903 32 147 3.2 9.7 0.00 0.00 0.00 69 1011.6
20260901000801 32 193 3.2 9.7 0.00 0.00 0.00 69 1011.6
20260901000703 32 196 6.4 9.7 0.00 0.00 0.00 69 1011.6
20260901000603 32 124 6.4 9.7 0.00 0.00 0.00 68 1011.6
20260901000503 32 168 4.8 9.7 0.00 0.00 0.00 69 1011.7
20260901000402 32 173 4.8 9.7 0.00 0.00 0.00 69 1011.6
20260901000303 32 141 3.2 8.0 0.00 0.00 0.00 69 1011.6
20260901000203 32 175 1.6 8.0 0.00 0.00 0.00 69 1011.6
20260901000103 32 148 1.6 8.0 0.00 0.00 0.00 69 1011.6
20260901000002 32 131 3.2 8.0 0.00 0.00 0.00 69 1011.6
20260831235903 32 149 3.2 8.0 0.00 0.00 0.00 69 1011.7
20260831235803 32 179 3.2 8.0 0.00 0.00 0.00 69 1011.6
20260831235702 32 90 4.8 8.0 0.00 0.00 0.00 69 1011.7
20260831235602 32 135 3.2 8.0 0.00 0.00 0.00 69 1011.7
20260831235502 32 137 1.6 11.3 0.00 0.00 0.00 69 1011.6
20260831235401 32 121 1.6 11.3 0.00 0.00 0.00 69 1011.6
20260831235306 32 134 3.2 11.3 0.00 0.00 0.00 69 1011.7
20260831235203 32 138 3.2 11.3 0.00 0.00 0.00 69 1011.7
20260831235103 32 158 4.8 11.3 0.00 0.00 0.00 69 1011.7
20260831235002 32 204 4.8 11.3 0.00 0.00 0.00 69 1011.6
20260831234904 32 188 3.2 11.3 0.00 0.00 0.00 69 1011.7
20260831234802 32 171 3.2 11.3 0.00 0.00 0.00 69 1011.7
20260831234702 32 190 6.4 11.3 0.00 0.00 0.00 69 1011.7
20260831234604 32 207 8.0 11.3 0.00 0.00 0.00 69 1011.6
20260831234503 32 212 6.4 11.3 0.00 0.00 0.00 69 1011.7
20260831234404 32 219 6.4 11.3 0.00 0.00 0.00 69 1011.6
20260831234302 32 155 6.4 11.3 0.00 0.00 0.00 69 1011.7
20260831234202 32 176 6.4 11.3 0.00 0.00 0.00 69 1011.6
20260831234103 32 180 6.4 11.3 0.00 0.00 0.00 69 1011.6
20260831234002 32 224 6.4 9.7 0.00 0.00 0.00 69 1011.6
20260831233903 32 190 6.4 9.7 0.00 0.00 0.00 68 1011.6
20260831233802 32 207 6.4 11.3 0.00 0.00 0.00 68 1011.6
20260831233703 32 212 4.8 11.3 0.00 0.00 0.00 68 1011.6
20260831233602 32 183 3.2 11.3 0.00 0.00 0.00 69 1011.7
20260831233503 32 138 3.2 11.3 0.00 0.00 0.00 68 1011.6
20260831233403 32 152 3.2 11.3 0.00 0.00 0.00 69 1011.7
20260831233301 32 155 3.2 11.3 0.00 0.00 0.00 68 1011.6
20260831233203 32 158 3.2 11.3 0.00 0.00 0.00 68 1011.7
20260831233101 32 138 4.8 11.3 0.00 0.00 0.00 68 1011.6
20260831233004 32 134 6.4 11.3 0.00 0.00 0.00 68 1011.7
20260831232903 32 179 4.8 14.5 0.00 0.00 0.00 68 1011.7
20260831232802 32 168 3.2 14.5 0.00 0.00 0.00 68 1011.7
20260831232703 32 175 3.2 14.5 0.00 0.00 0.00 69 1011.7
20260831232603 32 179 4.8 14.5 0.00 0.00 0.00 68 1011.7
20260831232504 32 138 6.4 14.5 0.00 0.00 0.00 68 1011.7
20260831232402 32 154 6.4 14.5 0.00 0.00 0.00 68 1011.7
20260831232305 32 149 6.4 14.5 0.00 0.00 0.00 68 1011.7
20260831232204 32 152 6.4 14.5 0.00 0.00 0.00 68 1011.7
20260831232104 32 134 6.4 14.5 0.00 0.00 0.00 68 1011.6
20260831232001 32 141 6.4 14.5 0.00 0.00 0.00 68 1011.6
20260831231902 32 135 6.4 14.5 0.00 0.00 0.00 68 1011.5
20260831231802 32 133 6.4 14.5 0.00 0.00 0.00 68 1011.5
20260831231702 33 141 6.4 14.5 0.00 0.00 0.00 68 1011.6
20260831231602 33 127 6.4 11.3 0.00 0.00 0.00 67 1011.6
20260831231503 33 135 4.8 11.3 0.00 0.00 0.00 67 1011.6
20260831231402 33 152 3.2 11.3 0.00 0.00 0.00 67 1011.6
20260831231302 33 202 3.2 11.3 0.00 0.00 0.00 67 1011.6
20260831231204 33 131 3.2 14.5 0.00 0.00 0.00 67 1011.6
20260831231102 33 145 6.4 14.5 0.00 0.00 0.00 67 1011.6
20260831231002 33 145 6.4 14.5 0.00 0.00 0.00 67 1011.5
20260831230859 33 140 4.8 14.5 0.00 0.00 0.00 67 1011.5
20260831230759 33 140 4.8 16.1 0.00 0.00 0.00 67 1011.5
20260831230656 33 152 3.2 16.1 0.00 0.00 0.00 67 1011.5
20260831230555 33 141 4.8 16.1 0.00 0.00 0.00 66 1011.5
20260831230451 33 164 4.8 16.1 0.00 0.00 0.00 66 1011.5
20260831230348 33 135 6.4 16.1 0.00 0.00 0.00 66 1011.5
20260831230247 33 161 6.4 16.1 0.00 0.00 0.00 66 1011.5
20260831230145 33 130 4.8 16.1 0.00 0.00 0.00 66 1011.5
20260831230044 33 138 6.4 16.1 0.00 0.00 0.00 66 1011.5
20260831225944 33 154 8.0 16.1 0.00 0.00 0.00 66 1011.6
20260831225844 33 173 8.0 16.1 0.00 0.00 0.00 66 1011.5
20260831225744 33 172 6.4 16.1 0.00 0.00 0.00 66 1011.5
20260831225644 33 197 6.4 14.5 0.00 0.00 0.00 65 1011.5
20260831225543 33 178 4.8 14.5 0.00 0.00 0.00 65 1011.6
20260831225443 33 162 6.4 14.5 0.00 0.00 0.00 65 1011.6
20260831225344 33 144 6.4 14.5 0.00 0.00 0.00 65 1011.6
20260831225244 33 134 6.4 14.5 0.00 0.00 0.00 65 1011.6
20260831225145 33 142 6.4 14.5 0.00 0.00 0.00 65 1011.6
20260831225044 33 124 6.4 14.5 0.00 0.00 0.00 65 1011.6
20260831224944 33 151 4.8 14.5 0.00 0.00 0.00 65 1011.7
20260831224845 33 80 3.2 14.5 0.00 0.00 0.00 65 1011.6
20260831224744 33 195 4.8 14.5 0.00 0.00 0.00 65 1011.6
20260831224645 33 162 6.4 14.5 0.00 0.00 0.00 65 1011.7
20260831224544 33 138 8.0 11.3 0.00 0.00 0.00 65 1011.6
20260831224445 33 128 6.4 9.7 0.00 0.00 0.00 64 1011.6
20260831224344 33 144 6.4 14.5 0.00 0.00 0.00 64 1011.7
20260831224244 33 137 6.4 14.5 0.00 0.00 0.00 64 1011.7
20260831224144 33 165 4.8 14.5 0.00 0.00 0.00 64 1011.7
20260831224044 33 104 4.8 14.5 0.00 0.00 0.00 64 1011.6
20260831223943 33 94 3.2 14.5 0.00 0.00 0.00 64 1011.7
20260831223843 33 87 3.2 14.5 0.00 0.00 0.00 65 1011.7
20260831223744 33 173 6.4 14.5 0.00 0.00 0.00 66 1011.7
20260831223644 33 176 6.4 14.5 0.00 0.00 0.00 66 1011.7
20260831223543 33 103 9.7 14.5 0.00 0.00 0.00 65 1011.7
20260831223446 33 117 8.0 14.5 0.00 0.00 0.00 65 1011.7
20260831223343 33 124 6.4 14.5 0.00 0.00 0.00 65 1011.8
20260831223244 33 154 6.4 14.5 0.00 0.00 0.00 64 1011.7
20260831223144 33 104 6.4 14.5 0.00 0.00 0.00 65 1011.7
20260831223045 33 100 6.4 14.5 0.00 0.00 0.00 65 1011.7
20260831222943 33 97 8.0 14.5 0.00 0.00 0.00 65 1011.7
20260831222843 33 109 8.0 14.5 0.00 0.00 0.00 65 1011.7
20260831222745 33 114 6.4 11.3 0.00 0.00 0.00 65 1011.6
20260831222644 33 138 6.4 9.7 0.00 0.00 0.00 65 1011.7
20260831222544 33 138 6.4 9.7 0.00 0.00 0.00 65 1011.7
20260831222445 33 100 6.4 9.7 0.00 0.00 0.00 64 1011.7
20260831222344 33 99 4.8 11.3 0.00 0.00 0.00 65 1011.7
20260831222243 33 97 6.4 11.3 0.00 0.00 0.00 64 1011.6
20260831222143 33 94 4.8 11.3 0.00 0.00 0.00 64 1011.7
20260831222044 33 86 4.8 11.3 0.00 0.00 0.00 65 1011.6
20260831221944 33 104 3.2 11.3 0.00 0.00 0.00 65 1011.6
20260831221842 33 123 3.2 11.3 0.00 0.00 0.00 65 1011.7
20260831221742 33 82 4.8 11.3 0.00 0.00 0.00 66 1011.7
20260831221643 33 159 4.8 11.3 0.00 0.00 0.00 66 1011.7
20260831221542 33 100 6.4 11.3 0.00 0.00 0.00 66 1011.7
20260831221443 33 94 8.0 11.3 0.00 0.00 0.00 66 1011.7
20260831221344 33 114 8.0 11.3 0.00 0.00 0.00 66 1011.7
20260831221243 33 109 6.4 11.3 0.00 0.00 0.00 66 1011.8
20260831221143 33 89 4.8 11.3 0.00 0.00 0.00 65 1011.8
20260831221043 33 109 6.4 11.3 0.00 0.00 0.00 66 1011.7
20260831220943 33 162 8.0 11.3 0.00 0.00 0.00 66 1011.7
20260831220842 33 121 6.4 11.3 0.00 0.00 0.00 65 1011.7
20260831220742 33 123 4.8 11.3 0.00 0.00 0.00 66 1011.7
20260831220643 33 134 4.8 14.5 0.00 0.00 0.00 67 1011.8
20260831220543 32 90 4.8 14.5 0.00 0.00 0.00 67 1011.7
20260831220442 32 90 6.4 14.5 0.00 0.00 0.00 67 1011.8
20260831220342 32 104 6.4 14.5 0.00 0.00 0.00 68 1011.8
20260831220242 32 107 8.0 14.5 0.00 0.00 0.00 67 1011.8
20260831220142 32 114 8.0 14.5 0.00 0.00 0.00 67 1011.8
20260831220042 32 117 6.4 14.5 0.00 0.00 0.00 68 1011.8
20260831215943 32 106 6.4 14.5 0.00 0.00 0.00 68 1011.9
20260831215842 32 99 6.4 14.5 0.00 0.00 0.00 67 1011.9
20260831215742 32 111 6.4 14.5 0.00 0.00 0.00 68 1011.8
20260831215643 32 114 6.4 11.3 0.00 0.00 0.00 67 1011.8
20260831215543 33 111 6.4 11.3 0.00 0.00 0.00 68 1011.8
20260831215442 32 151 4.8 11.3 0.00 0.00 0.00 69 1011.8
20260831215342 32 159 3.2 11.3 0.00 0.00 0.00 69 1011.8
20260831215244 32 130 3.2 11.3 0.00 0.00 0.00 69 1011.7
20260831215142 32 117 4.8 11.3 0.00 0.00 0.00 68 1011.8
20260831215041 32 172 6.4 14.5 0.00 0.00 0.00 69 1011.8
20260831214943 32 107 6.4 14.5 0.00 0.00 0.00 70 1011.8
20260831214842 32 134 6.4 14.5 0.00 0.00 0.00 71 1011.9
20260831214742 32 90 6.4 14.5 0.00 0.00 0.00 70 1011.9
20260831214642 32 82 8.0 14.5 0.00 0.00 0.00 71 1011.9
20260831214544 32 104 8.0 14.5 0.00 0.00 0.00 71 1011.9
20260831214442 32 107 6.4 14.5 0.00 0.00 0.00 72 1011.9
20260831214342 32 86 6.4 14.5 0.00 0.00 0.00 71 1011.9
20260831214242 32 107 9.7 14.5 0.00 0.00 0.00 71 1011.9
20260831214142 32 116 8.0 14.5 0.00 0.00 0.00 71 1011.9
20260831214042 32 111 6.4 11.3 0.00 0.00 0.00 71 1011.9
20260831213943 32 117 6.4 11.3 0.00 0.00 0.00 71 1012.0
20260831213843 32 116 4.8 11.3 0.00 0.00 0.00 70 1012.0
20260831213741 32 97 4.8 11.3 0.00 0.00 0.00 70 1012.0
20260831213641 32 159 6.4 11.3 0.00 0.00 0.00 70 1012.0
20260831213543 32 162 6.4 11.3 0.00 0.00 0.00 70 1011.9
20260831213442 32 155 6.4 11.3 0.00 0.00 0.00 70 1012.0
20260831213341 32 138 8.0 11.3 0.00 0.00 0.00 70 1012.0
20260831213241 32 144 6.4 11.3 0.00 0.00 0.00 71 1011.9
20260831213141 32 162 3.2 8.0 0.00 0.00 0.00 71 1012.0
20260831213041 32 121 0.0 6.4 0.00 0.00 0.00 72 1012.1
20260831212942 32 138 1.6 6.4 0.00 0.00 0.00 72 1012.1
20260831212842 32 138 3.2 6.4 0.00 0.00 0.00 72 1012.1
20260831212741 32 145 3.2 8.0 0.00 0.00 0.00 72 1012.1
20260831212643 32 114 3.2 8.0 0.00 0.00 0.00 72 1012.1
20260831212542 32 152 3.2 8.0 0.00 0.00 0.00 72 1012.2
20260831212442 32 123 4.8 8.0 0.00 0.00 0.00 72 1012.1
20260831212341 32 134 3.2 8.0 0.00 0.00 0.00 72 1012.2
20260831212241 32 161 3.2 8.0 0.00 0.00 0.00 72 1012.2
20260831212142 32 193 4.8 8.0 0.00 0.00 0.00 72 1012.3
20260831212041 32 152 3.2 8.0 0.00 0.00 0.00 73 1012.2
20260831211941 31 106 3.2 8.0 0.00 0.00 0.00 73 1012.2
20260831211841 31 147 4.8 8.0 0.00 0.00 0.00 73 1012.2
20260831211741 31 134 4.8 6.4 0.00 0.00 0.00 73 1012.3
20260831211642 31 131 4.8 6.4 0.00 0.00 0.00 74 1012.3
20260831211537 31 168 4.8 6.4 0.00 0.00 0.00 74 1012.3
20260831211433 31 180 3.2 6.4 0.00 0.00 0.00 75 1012.3
20260831211332 31 96 3.2 8.0 0.00 0.00 0.00 75 1012.3
20260831211230 31 169 4.8 8.0 0.00 0.00 0.00 75 1012.4
20260831211132 31 138 3.2 8.0 0.00 0.00 0.00 75 1012.4
20260831211033 31 141 3.2 8.0 0.00 0.00 0.00 75 1012.4
20260831210931 31 107 3.2 8.0 0.00 0.00 0.00 75 1012.4
20260831210831 31 141 3.2 8.0 0.00 0.00 0.00 76 1012.4
20260831210732 31 96 3.2 8.0 0.00 0.00 0.00 76 1012.4
20260831210632 31 140 3.2 8.0 0.00 0.00 0.00 76 1012.4
20260831210531 31 133 3.2 8.0 0.00 0.00 0.00 76 1012.4
20260831210434 31 151 4.8 8.0 0.00 0.00 0.00 75 1012.4
20260831210332 31 159 3.2 8.0 0.00 0.00 0.00 75 1012.4
20260831210231 31 130 3.2 6.4 0.00 0.00 0.00 76 1012.5
20260831210132 31 171 3.2 6.4 0.00 0.00 0.00 76 1012.5
20260831210031 31 183 4.8 6.4 0.00 0.00 0.00 76 1012.5
20260831205931 30 204 4.8 6.4 0.00 0.00 0.00 76 1012.5
20260831205831 30 247 3.2 6.4 0.00 0.00 0.00 77 1012.5
20260831205733 30 247 3.2 6.4 0.00 0.00 0.00 77 1012.5
20260831205631 30 189 1.6 8.0 0.00 0.00 0.00 78 1012.5
20260831205531 30 148 1.6 8.0 0.00 0.00 0.00 78 1012.6
20260831205433 30 137 0.0 8.0 0.00 0.00 0.00 78 1012.6
20260831205331 30 137 0.0 8.0 0.00 0.00 0.00 79 1012.7
20260831205231 30 137 1.6 8.0 0.00 0.00 0.00 79 1012.6
20260831205131 30 137 3.2 8.0 0.00 0.00 0.00 78 1012.6
20260831205033 30 137 3.2 8.0 0.00 0.00 0.00 78 1012.6
20260831204931 30 121 4.8 8.0 0.00 0.00 0.00 77 1012.6
20260831204832 30 124 4.8 8.0 0.00 0.00 0.00 77 1012.6
20260831204732 30 159 4.8 8.0 0.00 0.00 0.00 77 1012.6
20260831204632 30 144 3.2 8.0 0.00 0.00 0.00 77 1012.6
20260831204531 30 149 3.2 8.0 0.00 0.00 0.00 77 1012.6
20260831204431 30 130 3.2 9.7 0.00 0.00 0.00 77 1012.7
20260831204331 30 86 3.2 14.5 0.00 0.00 0.00 76 1012.7
20260831204231 30 83 3.2 14.5 0.00 0.00 0.00 76 1012.6
20260831204131 30 124 1.6 17.7 0.00 0.00 0.00 77 1012.7
20260831204032 30 99 1.6 17.7 0.00 0.00 0.00 77 1012.6
20260831203932 30 99 3.2 17.7 0.00 0.00 0.00 77 1012.6
20260831203832 30 99 4.8 17.7 0.00 0.00 0.00 77 1012.7
20260831203732 30 104 6.4 17.7 0.00 0.00 0.00 77 1012.7
20260831203632 29 72 6.4 17.7 0.00 0.00 0.00 77 1012.7
20260831203532 29 86 9.7 17.7 0.00 0.00 0.00 77 1012.7
20260831203432 29 85 9.7 17.7 0.00 0.00 0.00 78 1012.7
20260831203331 29 89 9.7 17.7 0.00 0.00 0.00 78 1012.7
20260831203230 29 104 8.0 17.7 0.00 0.00 0.00 78 1012.8
20260831203131 29 104 6.4 17.7 0.00 0.00 0.00 79 1012.8
20260831203032 29 90 6.4 17.7 0.00 0.00 0.00 80 1012.8
20260831202932 29 87 6.4 17.7 0.00 0.00 0.00 79 1012.8
20260831202832 29 93 8.0 17.7 0.00 0.00 0.00 79 1012.9
20260831202733 29 97 8.0 17.7 0.00 0.00 0.00 79 1012.9
20260831202633 29 90 8.0 17.7 0.00 0.00 0.00 79 1012.9
20260831202532 29 87 8.0 17.7 0.00 0.00 0.00 79 1012.9
20260831202430 29 94 11.3 17.7 0.00 0.00 0.00 78 1012.9
20260831202331 29 104 11.3 17.7 0.00 0.00 0.00 79 1012.9
20260831202232 29 120 6.4 19.3 0.00 0.00 0.00 80 1012.9
20260831202131 29 137 4.8 19.3 0.00 0.00 0.00 81 1012.9
20260831202032 29 80 8.0 19.3 0.00 0.00 0.00 80 1012.9
20260831201931 29 110 9.7 24.1 0.00 0.00 0.00 79 1012.9
20260831201830 29 97 11.3 24.1 0.00 0.00 0.00 79 1012.9
20260831201731 29 114 9.7 24.1 0.00 0.00 0.00 79 1013.1
20260831201633 29 93 8.0 24.1 0.00 0.00 0.00 79 1013.0
20260831201531 29 99 9.7 24.1 0.00 0.00 0.00 79 1013.1
20260831201431 29 138 11.3 24.1 0.00 0.00 0.00 79 1013.1
20260831201332 29 100 11.3 24.1 0.00 0.00 0.00 78 1013.1
20260831201230 30 78 9.7 24.1 0.00 0.00 0.00 77 1013.1
20260831201131 30 61 14.5 24.1 0.00 0.00 0.00 77 1013.1
20260831201030 30 75 14.5 24.1 0.00 0.00 0.00 76 1013.2
20260831200933 30 92 11.3 20.9 0.00 0.00 0.00 76 1013.2
20260831200832 31 116 11.3 20.9 0.00 0.00 0.00 76 1013.2
20260831200730 31 82 11.3 20.9 0.00 0.00 0.00 73 1013.1
20260831200632 31 137 9.7 19.3 0.00 0.00 0.00 72 1013.1
20260831200532 31 164 9.7 22.5 0.00 0.00 0.00 72 1013.2
20260831200430 31 110 9.7 22.5 0.00 0.00 0.00 72 1013.1
20260831200328 31 124 11.3 22.5 0.00 0.00 0.00 71 1013.2
20260831200226 32 147 9.7 22.5 0.00 0.00 0.00 71 1013.1
20260831200124 32 120 9.7 22.5 0.00 0.00 0.00 70 1013.1
20260831200023 32 171 11.3 22.5 0.00 0.00 0.00 69 1013.1
20260831195922 32 133 11.3 22.5 0.00 0.00 0.00 68 1013.1
20260831195820 32 134 11.3 22.5 0.00 0.00 0.00 68 1013.1
20260831195718 32 151 14.5 22.5 0.00 0.00 0.00 67 1013.0
20260831195617 32 130 14.5 22.5 0.00 0.00 0.00 67 1013.1
20260831195517 32 93 9.7 19.3 0.00 0.00 0.00 67 1013.1
20260831195414 32 142 8.0 19.3 0.00 0.00 0.00 67 1013.2
20260831195313 32 79 8.0 19.3 0.00 0.00 0.00 67 1013.1
20260831195212 32 127 8.0 17.7 0.00 0.00 0.00 67 1013.1
20260831195110 32 142 9.7 17.7 0.00 0.00 0.00 68 1013.1
20260831195009 32 213 8.0 17.7 0.00 0.00 0.00 68 1013.2
20260831194908 32 220 6.4 17.7 0.00 0.00 0.00 69 1013.1
20260831194806 32 135 8.0 17.7 0.00 0.00 0.00 68 1013.2
20260831194703 32 151 9.7 19.3 0.00 0.00 0.00 68 1013.1
20260831194603 32 172 8.0 19.3 0.00 0.00 0.00 69 1013.2
20260831194502 32 134 8.0 19.3 0.00 0.00 0.00 68 1013.2
20260831194402 32 147 9.7 20.9 0.00 0.00 0.00 67 1013.3
20260831194303 32 96 9.7 22.5 0.00 0.00 0.00 68 1013.2
20260831194202 33 110 9.7 24.1 0.00 0.00 0.00 67 1013.3
20260831194102 33 47 9.7 24.1 0.00 0.00 0.00 67 1013.3
20260831194003 33 217 9.7 24.1 0.00 0.00 0.00 66 1013.2
20260831193903 33 148 12.9 24.1 0.00 0.00 0.00 66 1013.2
20260831193802 33 138 11.3 24.1 0.00 0.00 0.00 65 1013.1
20260831193702 33 72 9.7 24.1 0.00 0.00 0.00 65 1013.2
20260831193604 34 124 12.9 24.1 0.00 0.00 0.00 64 1013.3
20260831193502 34 127 12.9 24.1 0.00 0.00 0.00 61 1013.3
20260831193403 35 104 14.5 24.1 0.00 0.00 0.00 60 1013.3
20260831193303 35 175 12.9 24.1 0.00 0.00 0.00 59 1013.2
20260831193202 35 226 9.7 20.9 0.00 0.00 0.00 59 1013.2
20260831193102 35 233 9.7 20.9 0.00 0.00 0.00 57 1013.2
20260831193002 35 196 4.8 11.3 0.00 0.00 0.00 56 1013.1
20260831192902 35 233 3.2 11.3 0.00 0.00 0.00 57 1013.2
20260831192802 35 276 1.6 11.3 0.00 0.00 0.00 57 1013.1
20260831192703 35 96 3.2 11.3 0.00 0.00 0.00 57 1013.2
20260831192603 35 96 4.8 11.3 0.00 0.00 0.00 57 1013.3
20260831192503 35 144 6.4 14.5 0.00 0.00 0.00 57 1013.3
20260831192402 35 172 6.4 14.5 0.00 0.00 0.00 57 1013.3
20260831192305 35 145 4.8 14.5 0.00 0.00 0.00 57 1013.3
20260831192203 35 188 3.2 14.5 0.00 0.00 0.00 58 1013.3
20260831192102 35 154 3.2 14.5 0.00 0.00 0.00 58 1013.3
20260831192003 35 133 6.4 14.5 0.00 0.00 0.00 58 1013.3
20260831191903 35 137 6.4 14.5 0.00 0.00 0.00 58 1013.3
20260831191802 35 138 6.4 14.5 0.00 0.00 0.00 58 1013.3
20260831191702 35 49 8.0 14.5 0.00 0.00 0.00 57 1013.4
20260831191603 35 92 6.4 14.5 0.00 0.00 0.00 58 1013.3
20260831191502 35 99 1.6 9.7 0.00 0.00 0.00 58 1013.2
20260831191401 34 59 1.6 9.7 0.00 0.00 0.00 57 1013.3
20260831191302 34 59 1.6 9.7 0.00 0.00 0.00 57 1013.2
20260831191203 34 59 3.2 9.7 0.00 0.00 0.00 58 1013.3
20260831191102 34 59 4.8 9.7 0.00 0.00 0.00 56 1013.3
20260831191002 34 58 6.4 9.7 0.00 0.00 0.00 56 1013.4
20260831190902 34 58 6.4 9.7 0.00 0.00 0.00 56 1013.4
20260831190803 35 49 4.8 8.0 0.00 0.00 0.00 55 1013.4
20260831190702 35 23 3.2 6.4 0.00 0.00 0.00 56 1013.4
20260831190603 34 23 4.8 9.7 0.00 0.00 0.00 56 1013.5
20260831190504 34 23 3.2 9.7 0.00 0.00 0.00 57 1013.5
20260831190401 34 72 3.2 9.7 0.00 0.00 0.00 57 1013.5
20260831190302 34 72 3.2 11.3 0.00 0.00 0.00 56 1013.5
20260831190203 34 24 1.6 11.3 0.00 0.00 0.00 56 1013.6
20260831190003 34 24 1.6 19.3 0.00 0.00 0.00 58 1013.6
20260831185904 33 39 3.2 19.3 0.00 0.00 0.00 58 1013.7
20260831185803 33 39 6.4 19.3 0.00 0.00 0.00 57 1013.6
20260831185702 34 39 6.4 19.3 0.00 0.00 0.00 57 1013.7
20260831185603 34 61 6.4 19.3 0.00 0.00 0.00 57 1013.6
20260831185504 34 49 8.0 19.3 0.00 0.00 0.00 57 1013.6
20260831185401 34 51 9.7 19.3 0.00 0.00 0.00 57 1013.7
20260831185306 34 47 9.7 19.3 0.00 0.00 0.00 57 1013.7
20260831185204 35 58 11.3 19.3 0.00 0.00 0.00 57 1013.6
20260831185103 35 17 9.7 19.3 0.00 0.00 0.00 58 1013.6
20260831185003 35 103 3.2 11.3 0.00 0.00 0.00 58 1013.7
20260831184903 34 299 1.6 9.7 0.00 0.00 0.00 58 1013.6
20260831184803 35 299 3.2 9.7 0.00 0.00 0.00 57 1013.7
20260831184702 35 259 3.2 9.7 0.00 0.00 0.00 56 1013.7
20260831184603 35 259 6.4 9.7 0.00 0.00 0.00 57 1013.7
20260831184504 35 241 4.8 9.7 0.00 0.00 0.00 57 1013.7
20260831184403 35 213 3.2 8.0 0.00 0.00 0.00 57 1013.7
20260831184302 35 259 3.2 9.7 0.00 0.00 0.00 57 1013.7
20260831184203 35 268 3.2 14.5 0.00 0.00 0.00 57 1013.7
20260831184103 35 168 3.2 16.1 0.00 0.00 0.00 57 1013.7
20260831184004 35 99 3.2 17.7 0.00 0.00 0.00 57 1013.8
20260831183902 35 99 4.8 17.7 0.00 0.00 0.00 57 1013.7
20260831183803 35 134 4.8 17.7 0.00 0.00 0.00 57 1013.8
20260831183702 35 27 4.8 17.7 0.00 0.00 0.00 58 1013.8
20260831183602 35 85 4.8 17.7 0.00 0.00 0.00 58 1013.8
20260831183504 35 20 4.8 17.7 0.00 0.00 0.00 58 1013.8
20260831183403 35 48 8.0 17.7 0.00 0.00 0.00 57 1013.8
20260831183302 35 49 11.3 17.7 0.00 0.00 0.00 57 1013.8
20260831183201 35 76 12.9 17.7 0.00 0.00 0.00 57 1013.9
20260831183103 35 63 11.3 17.7 0.00 0.00 0.00 57 1013.8
20260831183002 35 52 8.0 14.5 0.00 0.00 0.00 56 1013.8
20260831182903 35 97 4.8 11.3 0.00 0.00 0.00 56 1013.8
20260831182803 35 31 3.2 11.3 0.00 0.00 0.00 56 1013.8
20260831182702 35 0 6.4 11.3 0.00 0.00 0.00 57 1013.8
20260831182602 35 0 8.0 11.3 0.00 0.00 0.00 57 1013.9
20260831182504 35 44 4.8 8.0 0.00 0.00 0.00 56 1013.9
20260831182402 35 18 3.2 6.4 0.00 0.00 0.00 57 1013.9
20260831182305 35 344 3.2 6.4 0.00 0.00 0.00 57 1014.0
20260831182203 35 341 3.2 6.4 0.00 0.00 0.00 57 1013.9
20260831182103 35 340 3.2 6.4 0.00 0.00 0.00 57 1013.9
20260831182003 35 348 3.2 6.4 0.00 0.00 0.00 57 1013.9
20260831181903 35 348 3.2 9.7 0.00 0.00 0.00 58 1014.0
20260831181803 35 347 3.2 11.3 0.00 0.00 0.00 57 1014.1
20260831181703 35 309 4.8 14.5 0.00 0.00 0.00 57 1014.0
20260831181601 35 281 3.2 16.1 0.00 0.00 0.00 58 1014.0
20260831181502 35 336 3.2 16.1 0.00 0.00 0.00 59 1014.0
20260831181403 35 4 1.6 16.1 0.00 0.00 0.00 59 1014.1
20260831181302 35 32 1.6 16.1 0.00 0.00 0.00 60 1014.1
20260831181202 34 37 3.2 16.1 0.00 0.00 0.00 61 1014.1
20260831181104 34 37 6.4 16.1 0.00 0.00 0.00 62 1014.1
20260831181003 33 35 9.7 16.1 0.00 0.00 0.00 62 1014.1
20260831180902 33 80 11.3 16.1 0.00 0.00 0.00 61 1014.2
20260831180803 33 82 9.7 16.1 0.00 0.00 0.00 62 1014.2
20260831180702 33 109 8.0 16.1 0.00 0.00 0.00 62 1014.2
20260831180602 33 79 9.7 16.1 0.00 0.00 0.00 62 1014.2
20260831180502 33 73 6.4 16.1 0.00 0.00 0.00 62 1014.2
20260831180401 33 52 6.4 16.1 0.00 0.00 0.00 62 1014.3
20260831180303 34 55 9.7 16.1 0.00 0.00 0.00 62 1014.4
20260831180202 34 63 11.3 16.1 0.00 0.00 0.00 62 1014.2
20260831180105 34 56 6.4 16.1 0.00 0.00 0.00 62 1014.3
20260831180003 34 0 1.6 11.3 0.00 0.00 0.00 61 1014.4
20260831175902 34 334 1.6 11.3 0.00 0.00 0.00 61 1014.3
20260831175803 34 334 3.2 11.3 0.00 0.00 0.00 61 1014.4
20260831175702 34 334 4.8 11.3 0.00 0.00 0.00 61 1014.3
20260831175603 34 333 4.8 11.3 0.00 0.00 0.00 61 1014.4
20260831175503 34 324 6.4 11.3 0.00 0.00 0.00 61 1014.3
20260831175403 34 20 4.8 11.3 0.00 0.00 0.00 63 1014.5
20260831175305 34 357 4.8 9.7 0.00 0.00 0.00 64 1014.4
20260831175202 33 86 6.4 9.7 0.00 0.00 0.00 63 1014.4
20260831175103 33 87 8.0 9.7 0.00 0.00 0.00 64 1014.4
20260831175003 33 72 6.4 9.7 0.00 0.00 0.00 64 1014.4
20260831174902 33 125 4.8 9.7 0.00 0.00 0.00 65 1014.4
20260831174802 33 73 3.2 9.7 0.00 0.00 0.00 66 1014.4
20260831174703 33 59 3.2 11.3 0.00 0.00 0.00 66 1014.4
20260831174603 33 59 4.8 11.3 0.00 0.00 0.00 66 1014.4
20260831174502 32 82 4.8 11.3 0.00 0.00 0.00 66 1014.5
20260831174402 32 82 9.7 11.3 0.00 0.00 0.00 67 1014.4
20260831174303 32 62 8.0 11.3 0.00 0.00 0.00 67 1014.5
20260831174203 32 62 8.0 11.3 0.00 0.00 0.00 67 1014.5
20260831174103 32 62 8.0 11.3 0.00 0.00 0.00 67 1014.5
20260831174004 32 62 8.0 11.3 0.00 0.00 0.00 67 1014.5
20260831173902 32 56 9.7 11.3 0.00 0.00 0.00 68 1014.5
20260831173802 32 83 8.0 11.3 0.00 0.00 0.00 68 1014.5
20260831173703 32 83 8.0 11.3 0.00 0.00 0.00 68 1014.5
20260831173603 32 58 8.0 11.3 0.00 0.00 0.00 67 1014.6
20260831173503 32 56 6.4 9.7 0.00 0.00 0.00 67 1014.6
20260831173402 32 55 6.4 9.7 0.00 0.00 0.00 67 1014.6
20260831173303 32 59 4.8 9.7 0.00 0.00 0.00 67 1014.6
20260831173201 32 61 3.2 9.7 0.00 0.00 0.00 67 1014.6
20260831173102 32 61 1.6 9.7 0.00 0.00 0.00 66 1014.6
20260831173004 32 61 1.6 9.7 0.00 0.00 0.00 67 1014.6
20260831172902 32 61 1.6 16.1 0.00 0.00 0.00 66 1014.6
20260831172803 32 61 1.6 16.1 0.00 0.00 0.00 66 1014.7
20260831172703 32 61 3.2 16.1 0.00 0.00 0.00 66 1014.7
20260831172602 32 61 4.8 16.1 0.00 0.00 0.00 66 1014.7
20260831172502 32 61 6.4 16.1 0.00 0.00 0.00 65 1014.7
20260831172402 33 59 4.8 16.1 0.00 0.00 0.00 65 1014.6
20260831172306 33 30 4.8 16.1 0.00 0.00 0.00 65 1014.7
20260831172203 33 28 6.4 16.1 0.00 0.00 0.00 64 1014.7
20260831172102 33 63 9.7 16.1 0.00 0.00 0.00 64 1014.7
20260831172003 33 32 11.3 16.1 0.00 0.00 0.00 64 1014.7
20260831171901 33 58 9.7 16.1 0.00 0.00 0.00 64 1014.7
20260831171803 33 86 6.4 16.1 0.00 0.00 0.00 64 1014.7
20260831171702 33 44 4.8 16.1 0.00 0.00 0.00 65 1014.7
20260831171604 33 16 4.8 16.1 0.00 0.00 0.00 65 1014.8
20260831171503 32 16 4.8 16.1 0.00 0.00 0.00 66 1014.7
20260831171403 32 13 6.4 16.1 0.00 0.00 0.00 65 1014.7
20260831171302 32 11 9.7 16.1 0.00 0.00 0.00 65 1014.7
20260831171202 32 25 9.7 16.1 0.00 0.00 0.00 65 1014.8
20260831171102 32 42 6.4 14.5 0.00 0.00 0.00 65 1014.7
20260831171002 32 32 4.8 9.7 0.00 0.00 0.00 65 1014.7
20260831170903 32 337 3.2 8.0 0.00 0.00 0.00 66 1014.8
20260831170803 32 337 1.6 11.3 0.00 0.00 0.00 66 1014.7
20260831170701 32 321 0.0 14.5 0.00 0.00 0.00 66 1014.7
20260831170603 32 321 1.6 14.5 0.00 0.00 0.00 66 1014.7
20260831170503 32 321 3.2 14.5 0.00 0.00 0.00 65 1014.7
20260831170402 32 321 4.8 14.5 0.00 0.00 0.00 65 1014.7
20260831170303 32 0 3.2 14.5 0.00 0.00 0.00 65 1014.8
20260831170203 33 0 4.8 14.5 0.00 0.00 0.00 65 1014.7
20260831170002 33 6 4.8 14.5 0.00 0.00 0.00 64 1014.8
20260831165904 33 37 6.4 14.5 0.00 0.00 0.00 64 1014.8
20260831165802 33 37 6.4 14.5 0.00 0.00 0.00 64 1014.8
20260831165702 33 31 4.8 16.1 0.00 0.00 0.00 64 1014.8
20260831165603 33 0 4.8 16.1 0.00 0.00 0.00 64 1014.8
20260831165504 33 0 6.4 16.1 0.00 0.00 0.00 64 1014.8
20260831165402 33 0 9.7 16.1 0.00 0.00 0.00 65 1014.8
20260831165305 33 7 8.0 16.1 0.00 0.00 0.00 65 1014.8
20260831165202 33 3 4.8 16.1 0.00 0.00 0.00 66 1014.8
20260831165102 33 10 3.2 16.1 0.00 0.00 0.00 66 1014.8
20260831165003 33 94 4.8 16.1 0.00 0.00 0.00 66 1014.8
20260831164904 33 94 8.0 16.1 0.00 0.00 0.00 66 1014.9
20260831164802 33 73 11.3 16.1 0.00 0.00 0.00 66 1014.9
20260831164702 33 31 11.3 16.1 0.00 0.00 0.00 66 1015.0
20260831164603 33 39 9.7 11.3 0.00 0.00 0.00 66 1014.9
20260831164504 33 51 4.8 11.3 0.00 0.00 0.00 68 1014.9
20260831164403 32 340 3.2 11.3 0.00 0.00 0.00 67 1014.9
20260831164302 32 326 1.6 11.3 0.00 0.00 0.00 68 1014.9
20260831164203 32 0 1.6 16.1 0.00 0.00 0.00 67 1014.9
20260831164102 32 0 1.6 17.7 0.00 0.00 0.00 67 1014.9
20260831164004 32 27 1.6 17.7 0.00 0.00 0.00 67 1014.9
20260831163905 32 27 4.8 17.7 0.00 0.00 0.00 67 1014.9
20260831163802 32 28 6.4 17.7 0.00 0.00 0.00 67 1014.9
20260831163703 32 31 6.4 17.7 0.00 0.00 0.00 67 1014.9
20260831163602 32 18 8.0 17.7 0.00 0.00 0.00 67 1014.9
20260831163504 32 37 8.0 17.7 0.00 0.00 0.00 67 1014.9
20260831163403 32 56 9.7 17.7 0.00 0.00 0.00 67 1014.9
20260831163302 32 61 9.7 17.7 0.00 0.00 0.00 67 1014.9
20260831163204 32 4 6.4 17.7 0.00 0.00 0.00 67 1014.9
20260831163103 32 55 3.2 9.7 0.00 0.00 0.00 66 1014.9
20260831163003 32 56 3.2 11.3 0.00 0.00 0.00 66 1015.0
20260831162902 32 221 4.8 11.3 0.00 0.00 0.00 67 1014.9
20260831162803 32 149 4.8 11.3 0.00 0.00 0.00 67 1014.8
20260831162702 32 165 4.8 11.3 0.00 0.00 0.00 66 1014.8
20260831162602 32 90 4.8 11.3 0.00 0.00 0.00 67 1014.8
20260831162502 32 120 4.8 11.3 0.00 0.00 0.00 66 1014.8
20260831162402 32 120 6.4 11.3 0.00 0.00 0.00 66 1014.9
20260831162305 33 118 6.4 11.3 0.00 0.00 0.00 66 1014.9
20260831162203 33 90 6.4 11.3 0.00 0.00 0.00 66 1014.9
20260831162102 33 103 8.0 11.3 0.00 0.00 0.00 67 1014.9
20260831162003 33 86 6.4 9.7 0.00 0.00 0.00 67 1014.9
20260831161902 32 93 4.8 9.7 0.00 0.00 0.00 67 1014.9
20260831161803 32 49 6.4 9.7 0.00 0.00 0.00 67 1014.9
20260831161702 32 73 6.4 9.7 0.00 0.00 0.00 67 1014.9
20260831161602 32 73 6.4 8.0 0.00 0.00 0.00 68 1014.9
20260831161504 32 66 4.8 8.0 0.00 0.00 0.00 69 1014.9
20260831161403 32 49 1.6 8.0 0.00 0.00 0.00 70 1014.9
20260831161302 32 312 1.6 8.0 0.00 0.00 0.00 70 1014.9
20260831161202 32 312 1.6 8.0 0.00 0.00 0.00 70 1014.9
20260831161104 32 312 3.2 8.0 0.00 0.00 0.00 70 1014.9
20260831161002 32 312 3.2 8.0 0.00 0.00 0.00 70 1015.0
20260831160902 32 312 3.2 8.0 0.00 0.00 0.00 70 1014.9
20260831160804 32 289 3.2 8.0 0.00 0.00 0.00 69 1014.8
20260831160702 32 289 3.2 8.0 0.00 0.00 0.00 69 1014.8
20260831160604 32 248 1.6 8.0 0.00 0.00 0.00 69 1014.8
20260831160503 32 248 3.2 8.0 0.00 0.00 0.00 69 1014.9
20260831160403 32 250 3.2 8.0 0.00 0.00 0.00 69 1014.8
20260831160302 32 250 4.8 8.0 0.00 0.00 0.00 69 1014.8
20260831160202 32 264 4.8 9.7 0.00 0.00 0.00 69 1014.8
20260831160002 32 259 3.2 9.7 0.00 0.00 0.00 70 1015.0
20260831155903 32 258 3.2 9.7 0.00 0.00 0.00 69 1014.9
20260831155802 32 258 4.8 9.7 0.00 0.00 0.00 69 1015.0
20260831155705 32 258 4.8 9.7 0.00 0.00 0.00 70 1014.9
20260831155602 32 258 4.8 9.7 0.00 0.00 0.00 69 1014.9
20260831155502 32 250 3.2 9.7 0.00 0.00 0.00 70 1014.9
20260831155404 32 137 4.8 9.7 0.00 0.00 0.00 70 1014.9
20260831155306 32 138 6.4 9.7 0.00 0.00 0.00 70 1014.9
20260831155202 32 85 4.8 8.0 0.00 0.00 0.00 71 1014.9
20260831155103 32 221 3.2 6.4 0.00 0.00 0.00 72 1014.9
20260831155003 32 272 3.2 6.4 0.00 0.00 0.00 72 1014.9
20260831154902 32 274 3.2 8.0 0.00 0.00 0.00 72 1015.0
20260831154802 32 274 3.2 8.0 0.00 0.00 0.00 71 1014.9
20260831154702 32 274 3.2 8.0 0.00 0.00 0.00 72 1015.0
20260831154602 32 279 3.2 8.0 0.00 0.00 0.00 71 1015.0
20260831154503 32 224 3.2 8.0 0.00 0.00 0.00 72 1015.0
20260831154403 32 204 3.2 9.7 0.00 0.00 0.00 74 1015.0
20260831154303 31 124 3.2 9.7 0.00 0.00 0.00 74 1015.0
20260831154202 31 262 4.8 9.7 0.00 0.00 0.00 74 1015.0
20260831154103 31 271 6.4 9.7 0.00 0.00 0.00 74 1015.0
20260831154003 31 185 4.8 9.7 0.00 0.00 0.00 74 1015.0
20260831153902 31 235 3.2 9.7 0.00 0.00 0.00 75 1015.1
20260831153802 31 166 1.6 9.7 0.00 0.00 0.00 74 1015.0
20260831153704 31 121 3.2 9.7 0.00 0.00 0.00 74 1015.1
20260831153602 31 121 4.8 9.7 0.00 0.00 0.00 75 1015.1
20260831153502 31 171 4.8 9.7 0.00 0.00 0.00 75 1015.0
20260831153404 31 113 3.2 8.0 0.00 0.00 0.00 75 1015.1
20260831153303 31 250 1.6 8.0 0.00 0.00 0.00 76 1015.1
20260831153202 31 251 3.2 8.0 0.00 0.00 0.00 76 1015.1
20260831153102 31 252 4.8 8.0 0.00 0.00 0.00 76 1015.0
20260831153004 31 235 3.2 8.0 0.00 0.00 0.00 76 1015.1
20260831152902 30 324 0.0 4.8 0.00 0.00 0.00 76 1015.1
20260831152802 30 324 0.0 4.8 0.00 0.00 0.00 76 1015.0
20260831152704 30 324 1.6 4.8 0.00 0.00 0.00 75 1015.0
20260831152603 30 324 3.2 8.0 0.00 0.00 0.00 75 1015.0
20260831152502 30 323 3.2 8.0 0.00 0.00 0.00 75 1015.0
20260831152403 30 286 3.2 8.0 0.00 0.00 0.00 76 1014.9
20260831152306 30 331 3.2 8.0 0.00 0.00 0.00 75 1015.0
20260831152203 30 334 3.2 8.0 0.00 0.00 0.00 75 1015.0
20260831152102 30 334 3.2 8.0 0.00 0.00 0.00 76 1015.0
20260831152005 30 334 1.6 9.7 0.00 0.00 0.00 76 1014.9
20260831151902 30 41 1.6 9.7 0.00 0.00 0.00 75 1015.0
20260831151802 30 41 3.2 9.7 0.00 0.00 0.00 75 1015.0
20260831151704 31 41 3.2 9.7 0.00 0.00 0.00 74 1015.0
20260831151602 31 41 1.6 9.7 0.00 0.00 0.00 74 1014.9
20260831151503 31 41 3.2 9.7 0.00 0.00 0.00 73 1014.9
20260831151358 31 41 4.8 9.7 0.00 0.00 0.00 75 1014.9
20260831151257 31 99 3.2 9.7 0.00 0.00 0.00 75 1014.9
20260831151156 31 104 3.2 9.7 0.00 0.00 0.00 75 1014.8
20260831151056 31 106 3.2 9.7 0.00 0.00 0.00 75 1014.8
20260831150953 31 92 3.2 8.0 0.00 0.00 0.00 75 1014.8
20260831150852 31 89 3.2 8.0 0.00 0.00 0.00 76 1014.8
20260831150750 31 178 3.2 8.0 0.00 0.00 0.00 76 1014.9
20260831150649 31 118 1.6 8.0 0.00 0.00 0.00 77 1014.9
20260831150548 30 20 1.6 8.0 0.00 0.00 0.00 77 1014.8
20260831150446 30 20 3.2 8.0 0.00 0.00 0.00 77 1014.8
20260831150344 30 39 4.8 8.0 0.00 0.00 0.00 77 1014.8
20260831150242 30 39 4.8 9.7 0.00 0.00 0.00 77 1014.9
20260831150141 30 49 4.8 9.7 0.00 0.00 0.00 78 1014.8
20260831150039 30 48 1.6 9.7 0.00 0.00 0.00 79 1014.8
20260831145938 30 94 1.6 9.7 0.00 0.00 0.00 79 1014.8
20260831145835 30 96 0.0 9.7 0.00 0.00 0.00 79 1014.9
20260831145736 30 96 3.2 9.7 0.00 0.00 0.00 79 1014.9
20260831145634 30 96 3.2 9.7 0.00 0.00 0.00 79 1014.9
20260831145533 30 94 3.2 9.7 0.00 0.00 0.00 78 1014.9
20260831145432 30 94 6.4 9.7 0.00 0.00 0.00 78 1014.9
20260831145333 30 93 6.4 9.7 0.00 0.00 0.00 79 1014.9
20260831145233 30 34 4.8 9.7 0.00 0.00 0.00 79 1014.9
20260831145132 30 51 4.8 9.7 0.00 0.00 0.00 79 1014.9
20260831145033 30 51 1.6 9.7 0.00 0.00 0.00 79 1014.9
20260831144933 30 20 3.2 9.7 0.00 0.00 0.00 79 1014.9
20260831144832 30 20 6.4 9.7 0.00 0.00 0.00 79 1014.9
20260831144732 30 20 6.4 9.7 0.00 0.00 0.00 80 1015.0
20260831144632 30 28 4.8 9.7 0.00 0.00 0.00 80 1014.9
20260831144532 30 13 6.4 9.7 0.00 0.00 0.00 80 1014.8
20260831144432 30 14 8.0 9.7 0.00 0.00 0.00 81 1014.8
20260831144332 30 39 6.4 9.7 0.00 0.00 0.00 81 1014.9
20260831144233 30 18 3.2 8.0 0.00 0.00 0.00 81 1014.9
20260831144133 30 23 4.8 8.0 0.00 0.00 0.00 81 1014.9
20260831144032 30 23 4.8 8.0 0.00 0.00 0.00 81 1014.9
20260831143934 30 68 3.2 6.4 0.00 0.00 0.00 82 1014.9
20260831143832 29 51 3.2 6.4 0.00 0.00 0.00 82 1014.8
20260831143733 29 51 3.2 6.4 0.00 0.00 0.00 81 1014.8
20260831143633 29 51 4.8 6.4 0.00 0.00 0.00 81 1014.8
20260831143532 29 51 4.8 6.4 0.00 0.00 0.00 81 1014.8
20260831143432 30 44 4.8 6.4 0.00 0.00 0.00 81 1014.8
20260831143332 30 39 3.2 6.4 0.00 0.00 0.00 81 1014.8
20260831143233 30 16 3.2 9.7 0.00 0.00 0.00 81 1014.8
20260831143132 30 16 4.8 9.7 0.00 0.00 0.00 81 1014.9
20260831143031 30 16 4.8 9.7 0.00 0.00 0.00 82 1014.8
20260831142931 30 13 4.8 9.7 0.00 0.00 0.00 82 1014.9
20260831142832 29 37 4.8 9.7 0.00 0.00 0.00 82 1014.8
20260831142732 29 28 3.2 9.7 0.00 0.00 0.00 82 1014.8
20260831142632 29 16 3.2 9.7 0.00 0.00 0.00 82 1014.9
20260831142531 29 16 4.8 9.7 0.00 0.00 0.00 82 1014.9
20260831142433 29 14 4.8 9.7 0.00 0.00 0.00 82 1014.9
20260831142332 29 42 3.2 9.7 0.00 0.00 0.00 83 1014.9
20260831142232 29 16 0.0 6.4 0.00 0.00 0.00 83 1014.8
20260831142132 29 16 0.0 6.4 0.00 0.00 0.00 83 1014.8
20260831142032 29 17 0.0 6.4 0.00 0.00 0.00 83 1014.8
20260831141931 29 17 0.0 6.4 0.00 0.00 0.00 83 1014.9
20260831141833 29 334 0.0 6.4 0.00 0.00 0.00 83 1014.8
20260831141732 29 334 1.6 6.4 0.00 0.00 0.00 83 1014.8
20260831141631 29 334 3.2 6.4 0.00 0.00 0.00 83 1014.8
20260831141533 29 334 4.8 6.4 0.00 0.00 0.00 84 1014.8
20260831141431 28 333 4.8 6.4 0.00 0.00 0.00 83 1014.8
20260831141332 28 338 4.8 6.4 0.00 0.00 0.00 83 1014.7
20260831141232 28 351 3.2 6.4 0.00 0.00 0.00 84 1014.8
20260831141133 28 14 1.6 6.4 0.00 0.00 0.00 84 1014.7
20260831141032 28 20 1.6 6.4 0.00 0.00 0.00 84 1014.7
20260831140932 28 20 3.2 6.4 0.00 0.00 0.00 84 1014.7
20260831140831 28 20 3.2 6.4 0.00 0.00 0.00 84 1014.8
20260831140731 28 35 4.8 6.4 0.00 0.00 0.00 85 1014.7
20260831140631 28 0 3.2 6.4 0.00 0.00 0.00 85 1014.7
20260831140531 28 0 3.2 6.4 0.00 0.00 0.00 85 1014.7
20260831140433 28 0 3.2 6.4 0.00 0.00 0.00 85 1014.7
20260831140332 28 0 1.6 6.4 0.00 0.00 0.00 85 1014.6
20260831140232 28 0 3.2 6.4 0.00 0.00 0.00 86 1014.7
20260831140131 28 0 4.8 8.0 0.00 0.00 0.00 86 1014.6
20260831140033 28 0 3.2 8.0 0.00 0.00 0.00 86 1014.7
20260831135931 28 0 1.6 8.0 0.00 0.00 0.00 86 1014.7
20260831135831 28 0 3.2 8.0 0.00 0.00 0.00 86 1014.7
20260831135731 28 0 3.2 8.0 0.00 0.00 0.00 86 1014.7
20260831135632 28 0 3.2 8.0 0.00 0.00 0.00 86 1014.6
20260831135531 28 0 1.6 8.0 0.00 0.00 0.00 86 1014.6
20260831135432 28 0 3.2 8.0 0.00 0.00 0.00 86 1014.7
20260831135331 28 0 4.8 8.0 0.00 0.00 0.00 86 1014.6
20260831135231 28 0 4.8 8.0 0.00 0.00 0.00 87 1014.6
20260831135131 28 6 4.8 8.0 0.00 0.00 0.00 87 1014.6
20260831135033 28 10 4.8 8.0 0.00 0.00 0.00 87 1014.5
20260831134931 28 10 6.4 8.0 0.00 0.00 0.00 87 1014.6
20260831134831 27 8 4.8 8.0 0.00 0.00 0.00 87 1014.5
20260831134732 27 10 4.8 8.0 0.00 0.00 0.00 87 1014.5
20260831134631 27 11 4.8 8.0 0.00 0.00 0.00 88 1014.4
20260831134531 27 11 6.4 8.0 0.00 0.00 0.00 88 1014.5
20260831134432 27 10 6.4 8.0 0.00 0.00 0.00 88 1014.4
20260831134332 27 11 4.8 8.0 0.00 0.00 0.00 88 1014.5
20260831134231 27 0 3.2 6.4 0.00 0.00 0.00 88 1014.4
20260831134131 27 0 4.8 6.4 0.00 0.00 0.00 88 1014.5
20260831134033 27 0 3.2 6.4 0.00 0.00 0.00 89 1014.5
20260831133932 27 0 3.2 6.4 0.00 0.00 0.00 89 1014.5
20260831133831 27 0 3.2 6.4 0.00 0.00 0.00 89 1014.4
20260831133732 27 0 3.2 6.4 0.00 0.00 0.00 89 1014.5
20260831133631 27 0 3.2 6.4 0.00 0.00 0.00 89 1014.5
20260831133531 27 0 4.8 6.4 0.00 0.00 0.00 89 1014.5
20260831133431 27 0 3.2 6.4 0.00 0.00 0.00 89 1014.6
20260831133332 27 0 3.2 6.4 0.00 0.00 0.00 89 1014.5
20260831133231 27 0 3.2 6.4 0.00 0.00 0.00 89 1014.5
20260831133132 27 0 3.2 4.8 0.00 0.00 0.00 89 1014.4
20260831133033 27 0 3.2 8.0 0.00 0.00 0.00 89 1014.4
20260831132932 27 0 3.2 8.0 0.00 0.00 0.00 89 1014.4
20260831132830 27 0 3.2 8.0 0.00 0.00 0.00 89 1014.4
20260831132731 27 0 3.2 8.0 0.00 0.00 0.00 89 1014.4
20260831132630 27 0 3.2 8.0 0.00 0.00 0.00 89 1014.3
20260831132531 27 0 1.6 8.0 0.00 0.00 0.00 89 1014.3
20260831132431 27 0 1.6 8.0 0.00 0.00 0.00 89 1014.3
20260831132330 27 0 3.2 8.0 0.00 0.00 0.00 89 1014.3
20260831132232 27 0 4.8 8.0 0.00 0.00 0.00 89 1014.3
20260831132130 27 0 4.8 8.0 0.00 0.00 0.00 89 1014.3
20260831132030 27 0 3.2 8.0 0.00 0.00 0.00 89 1014.2
20260831131931 27 0 3.2 8.0 0.00 0.00 0.00 89 1014.2
20260831131830 27 0 4.8 8.0 0.00 0.00 0.00 89 1014.2
20260831131728 27 0 4.8 8.0 0.00 0.00 0.00 89 1014.2
20260831131627 27 0 4.8 8.0 0.00 0.00 0.00 89 1014.1
20260831131525 27 351 3.2 6.4 0.00 0.00 0.00 89 1014.1
20260831131424 27 350 3.2 6.4 0.00 0.00 0.00 89 1014.1
20260831131323 27 350 3.2 6.4 0.00 0.00 0.00 89 1014.1
20260831131222 27 351 3.2 6.4 0.00 0.00 0.00 89 1014.1
20260831131119 27 351 3.2 6.4 0.00 0.00 0.00 89 1014.1
20260831131019 27 351 3.2 6.4 0.00 0.00 0.00 89 1014.0
20260831130917 27 351 3.2 6.4 0.00 0.00 0.00 89 1014.1
20260831130815 27 351 3.2 6.4 0.00 0.00 0.00 89 1014.1
20260831130715 27 351 3.2 6.4 0.00 0.00 0.00 89 1014.1
20260831130612 27 348 3.2 6.4 0.00 0.00 0.00 90 1014.1
20260831130510 27 348 3.2 6.4 0.00 0.00 0.00 90 1014.2
20260831130408 27 347 3.2 6.4 0.00 0.00 0.00 90 1014.1
20260831130309 27 347 4.8 6.4 0.00 0.00 0.00 90 1014.1
20260831130205 27 347 3.2 6.4 0.00 0.00 0.00 90 1014.1
20260831130107 27 337 3.2 4.8 0.00 0.00 0.00 90 1014.2
20260831130004 27 337 3.2 4.8 0.00 0.00 0.00 90 1014.1
20260831125902 27 337 3.2 4.8 0.00 0.00 0.00 90 1014.1
20260831125802 27 337 3.2 4.8 0.00 0.00 0.00 90 1014.1
20260831125704 27 336 3.2 4.8 0.00 0.00 0.00 90 1014.0
20260831125602 27 336 4.8 4.8 0.00 0.00 0.00 90 1014.0
20260831125502 27 336 3.2 4.8 0.00 0.00 0.00 90 1013.9
20260831125402 26 313 3.2 4.8 0.00 0.00 0.00 90 1013.9
20260831125306 26 0 3.2 4.8 0.00 0.00 0.00 90 1013.9
20260831125202 26 0 3.2 4.8 0.00 0.00 0.00 90 1013.9
20260831125101 26 0 3.2 4.8 0.00 0.00 0.00 90 1013.9
20260831125003 26 175 3.2 4.8 0.00 0.00 0.00 90 1013.8
20260831124902 26 169 1.6 4.8 0.00 0.00 0.00 90 1013.9
20260831124802 26 169 1.6 4.8 0.00 0.00 0.00 91 1013.8
20260831124702 26 0 1.6 4.8 0.00 0.00 0.00 91 1013.8
20260831124604 26 179 1.6 4.8 0.00 0.00 0.00 91 1013.7
20260831124502 26 188 1.6 4.8 0.00 0.00 0.00 91 1013.8
20260831124402 26 183 1.6 4.8 0.00 0.00 0.00 91 1013.7
20260831124303 26 183 3.2 4.8 0.00 0.00 0.00 91 1013.8
20260831124203 26 183 3.2 4.8 0.00 0.00 0.00 91 1013.7
20260831124102 26 0 3.2 4.8 0.00 0.00 0.00 91 1013.7
20260831124004 26 0 3.2 4.8 0.00 0.00 0.00 91 1013.7
20260831123903 26 0 3.2 4.8 0.00 0.00 0.00 91 1013.7
20260831123802 26 0 3.2 4.8 0.00 0.00 0.00 91 1013.7
20260831123702 26 0 1.6 4.8 0.00 0.00 0.00 91 1013.8
20260831123602 26 0 0.0 0.0 0.00 0.00 0.00 91 1013.7
20260831123503 26 0 0.0 0.0 0.00 0.00 0.00 91 1013.8
20260831123403 26 0 0.0 0.0 0.00 0.00 0.00 91 1013.8
20260831123302 26 237 0.0 0.0 0.00 0.00 0.00 91 1013.8
20260831123203 26 241 0.0 0.0 0.00 0.00 0.00 92 1013.9
20260831123102 26 241 0.0 0.0 0.00 0.00 0.00 92 1013.8
20260831123002 26 241 0.0 0.0 0.00 0.00 0.00 92 1013.9
20260831122904 26 241 0.0 0.0 0.00 0.00 0.00 92 1013.7
20260831122804 26 241 0.0 0.0 0.00 0.00 0.00 92 1013.7
20260831122703 26 241 0.0 0.0 0.00 0.00 0.00 92 1013.8
20260831122603 26 241 0.0 0.0 0.00 0.00 0.00 92 1013.7
20260831122504 26 241 0.0 0.0 0.00 0.00 0.00 92 1013.7
20260831122403 26 241 0.0 1.6 0.00 0.00 0.00 92 1013.7
20260831122305 26 241 0.0 3.2 0.00 0.00 0.00 92 1013.7
20260831122203 26 241 0.0 3.2 0.00 0.00 0.00 92 1013.6
20260831122102 26 241 0.0 4.8 0.00 0.00 0.00 92 1013.6
20260831122003 26 241 0.0 4.8 0.00 0.00 0.00 92 1013.6
20260831121903 26 241 0.0 4.8 0.00 0.00 0.00 92 1013.5
20260831121803 26 241 0.0 4.8 0.00 0.00 0.00 92 1013.4
20260831121703 26 241 0.0 4.8 0.00 0.00 0.00 92 1013.4
20260831121603 26 241 0.0 4.8 0.00 0.00 0.00 92 1013.4
20260831121503 26 241 1.6 4.8 0.00 0.00 0.00 92 1013.4
20260831121402 26 241 1.6 4.8 0.00 0.00 0.00 92 1013.3
20260831121302 26 241 3.2 4.8 0.00 0.00 0.00 92 1013.2
20260831121204 26 241 3.2 4.8 0.00 0.00 0.00 92 1013.3
20260831121102 25 210 0.0 3.2 0.00 0.00 0.00 92 1013.3
20260831121003 25 209 0.0 0.0 0.00 0.00 0.00 92 1013.3
20260831120903 25 209 0.0 0.0 0.00 0.00 0.00 92 1013.3
20260831120802 25 209 0.0 0.0 0.00 0.00 0.00 92 1013.3
20260831120702 25 209 0.0 0.0 0.00 0.00 0.00 92 1013.3
20260831120603 25 209 0.0 0.0 0.00 0.00 0.00 92 1013.4
20260831120503 25 209 0.0 0.0 0.00 0.00 0.00 92 1013.3
20260831120402 25 209 0.0 0.0 0.00 0.00 0.00 92 1013.3
20260831120303 25 209 0.0 0.0 0.00 0.00 0.00 92 1013.3
20260831120204 25 209 0.0 0.0 0.00 0.00 0.00 92 1013.3
20260831120004 25 209 0.0 0.0 0.00 0.00 0.00 92 1013.3
20260831115903 25 209 0.0 0.0 0.00 0.00 0.00 92 1013.2
20260831115803 25 209 0.0 0.0 0.00 0.00 0.00 91 1013.3
20260831115702 25 207 0.0 0.0 0.00 0.00 0.00 91 1013.3
20260831115602 25 207 0.0 0.0 0.00 0.00 0.00 91 1013.3
20260831115505 25 207 0.0 0.0 0.00 0.00 0.00 91 1013.3
20260831115402 25 207 0.0 0.0 0.00 0.00 0.00 91 1013.3
20260831115306 25 207 0.0 0.0 0.00 0.00 0.00 91 1013.3
20260831115204 25 207 0.0 0.0 0.00 0.00 0.00 91 1013.3
20260831115102 26 206 0.0 0.0 0.00 0.00 0.00 91 1013.2
20260831115003 26 206 0.0 0.0 0.00 0.00 0.00 91 1013.3
20260831114902 26 206 0.0 0.0 0.00 0.00 0.00 91 1013.3
20260831114804 26 206 0.0 0.0 0.00 0.00 0.00 91 1013.2
20260831114702 26 206 0.0 0.0 0.00 0.00 0.00 91 1013.2
20260831114602 26 206 0.0 0.0 0.00 0.00 0.00 91 1013.3
20260831114504 26 206 0.0 0.0 0.00 0.00 0.00 91 1013.2
20260831114402 26 206 0.0 0.0 0.00 0.00 0.00 91 1013.2
20260831114302 26 206 0.0 0.0 0.00 0.00 0.00 91 1013.3
20260831114204 26 206 0.0 0.0 0.00 0.00 0.00 91 1013.3
20260831114103 26 206 0.0 0.0 0.00 0.00 0.00 91 1013.3
20260831114002 26 206 0.0 0.0 0.00 0.00 0.00 91 1013.3
20260831113903 26 206 0.0 0.0 0.00 0.00 0.00 91 1013.3
20260831113802 26 206 0.0 0.0 0.00 0.00 0.00 91 1013.3
20260831113702 26 206 0.0 0.0 0.00 0.00 0.00 91 1013.3
20260831113602 26 206 0.0 0.0 0.00 0.00 0.00 90 1013.4
20260831113505 26 206 0.0 0.0 0.00 0.00 0.00 90 1013.3
20260831113402 26 206 0.0 0.0 0.00 0.00 0.00 90 1013.3
20260831113302 26 206 0.0 0.0 0.00 0.00 0.00 90 1013.3
20260831113203 26 206 0.0 0.0 0.00 0.00 0.00 90 1013.3
20260831113104 26 206 0.0 0.0 0.00 0.00 0.00 90 1013.2
20260831113003 26 206 0.0 0.0 0.00 0.00 0.00 90 1013.2
20260831112902 26 206 0.0 0.0 0.00 0.00 0.00 90 1013.2
20260831112803 26 206 0.0 0.0 0.00 0.00 0.00 90 1013.1
20260831112704 26 206 0.0 0.0 0.00 0.00 0.00 90 1013.1
20260831112604 26 206 0.0 0.0 0.00 0.00 0.00 90 1013.1
20260831112502 26 206 0.0 0.0 0.00 0.00 0.00 90 1013.1
20260831112402 26 206 0.0 0.0 0.00 0.00 0.00 90 1013.1
20260831112306 26 206 0.0 0.0 0.00 0.00 0.00 90 1013.1
20260831112202 26 206 0.0 0.0 0.00 0.00 0.00 90 1013.2
20260831112104 26 206 0.0 0.0 0.00 0.00 0.00 90 1013.2
20260831112003 26 206 0.0 0.0 0.00 0.00 0.00 90 1013.2
20260831111902 26 206 0.0 0.0 0.00 0.00 0.00 90 1013.2
20260831111804 26 206 0.0 0.0 0.00 0.00 0.00 90 1013.3
20260831111703 26 206 0.0 0.0 0.00 0.00 0.00 90 1013.2
20260831111603 26 206 0.0 0.0 0.00 0.00 0.00 90 1013.2
20260831111503 26 206 0.0 0.0 0.00 0.00 0.00 90 1013.2
20260831111404 26 206 0.0 0.0 0.00 0.00 0.00 90 1013.1
20260831111303 26 206 0.0 0.0 0.00 0.00 0.00 90 1013.0
20260831111203 26 206 0.0 0.0 0.00 0.00 0.00 90 1013.1
20260831111104 26 206 0.0 0.0 0.00 0.00 0.00 90 1013.1
20260831111004 26 206 0.0 0.0 0.00 0.00 0.00 90 1013.1
20260831110901 26 206 0.0 0.0 0.00 0.00 0.00 90 1013.1
20260831110802 26 206 0.0 0.0 0.00 0.00 0.00 90 1013.1
20260831110704 26 206 0.0 0.0 0.00 0.00 0.00 90 1013.0
20260831110602 26 206 0.0 0.0 0.00 0.00 0.00 90 1013.0
20260831110502 26 206 0.0 0.0 0.00 0.00 0.00 89 1013.0
20260831110403 26 206 0.0 0.0 0.00 0.00 0.00 89 1013.1
20260831110302 26 206 0.0 0.0 0.00 0.00 0.00 89 1013.1
20260831110203 26 206 0.0 0.0 0.00 0.00 0.00 89 1013.1
20260831110103 26 206 0.0 0.0 0.00 0.00 0.00 89 1013.2
20260831110003 26 206 0.0 0.0 0.00 0.00 0.00 89 1013.2
20260831105902 26 206 0.0 1.6 0.00 0.00 0.00 89 1013.1
20260831105802 26 206 0.0 3.2 0.00 0.00 0.00 89 1013.1
20260831105703 26 206 0.0 3.2 0.00 0.00 0.00 89 1013.0
20260831105602 26 206 0.0 3.2 0.00 0.00 0.00 88 1013.2
20260831105503 26 206 0.0 3.2 0.00 0.00 0.00 88 1013.1
20260831105404 26 206 0.0 3.2 0.00 0.00 0.00 88 1013.2
20260831105306 26 206 0.0 3.2 0.00 0.00 0.00 88 1013.1
20260831105200 26 206 0.0 3.2 0.00 0.00 0.00 89 1013.1
20260831105059 26 206 0.0 3.2 0.00 0.00 0.00 89 1013.1
20260831104957 26 206 1.6 3.2 0.00 0.00 0.00 89 1013.1
20260831104856 26 206 1.6 3.2 0.00 0.00 0.00 89 1013.1
20260831104756 26 206 1.6 3.2 0.00 0.00 0.00 89 1013.1
20260831104652 26 203 1.6 3.2 0.00 0.00 0.00 89 1013.1
20260831104552 26 196 0.0 0.0 0.00 0.00 0.00 89 1013.1
20260831104450 26 196 0.0 0.0 0.00 0.00 0.00 89 1013.1
20260831104349 26 196 0.0 0.0 0.00 0.00 0.00 89 1013.0
20260831104247 26 196 0.0 0.0 0.00 0.00 0.00 89 1013.0
20260831104145 26 195 0.0 0.0 0.00 0.00 0.00 90 1013.0
20260831104043 26 195 0.0 0.0 0.00 0.00 0.00 90 1013.0
20260831103941 26 195 0.0 0.0 0.00 0.00 0.00 90 1013.0
20260831103842 26 193 0.0 0.0 0.00 0.00 0.00 90 1013.0
20260831103741 26 192 0.0 0.0 0.00 0.00 0.00 90 1013.0
20260831103639 26 192 0.0 0.0 0.00 0.00 0.00 90 1013.0
20260831103536 26 192 0.0 0.0 0.00 0.00 0.00 90 1013.0
20260831103435 26 192 0.0 0.0 0.00 0.00 0.00 90 1013.0
20260831103334 26 190 0.0 0.0 0.00 0.00 0.00 90 1013.0
20260831103232 26 190 0.0 0.0 0.00 0.00 0.00 91 1013.0
20260831103128 26 190 0.0 0.0 0.00 0.00 0.00 90 1013.1
20260831103026 26 190 0.0 0.0 0.00 0.00 0.00 90 1013.0
20260831102927 26 190 0.0 0.0 0.00 0.00 0.00 90 1013.1
20260831102828 26 190 0.0 0.0 0.00 0.00 0.00 90 1013.0
20260831102727 26 190 0.0 0.0 0.00 0.00 0.00 90 1012.9
20260831102626 26 190 0.0 0.0 0.00 0.00 0.00 90 1012.9
20260831102528 26 190 0.0 0.0 0.00 0.00 0.00 90 1013.0
20260831102428 26 190 0.0 0.0 0.00 0.00 0.00 90 1013.0
20260831102328 26 190 0.0 0.0 0.00 0.00 0.00 90 1013.0
20260831102228 26 190 0.0 0.0 0.00 0.00 0.00 90 1013.0
20260831102126 26 190 0.0 0.0 0.00 0.00 0.00 90 1013.1
20260831102027 26 190 0.0 0.0 0.00 0.00 0.00 90 1013.1
20260831101927 26 190 0.0 0.0 0.00 0.00 0.00 90 1013.1
20260831101826 26 190 0.0 0.0 0.00 0.00 0.00 90 1013.2
20260831101728 26 190 0.0 0.0 0.00 0.00 0.00 90 1013.1
20260831101627 26 190 0.0 0.0 0.00 0.00 0.00 90 1013.1
20260831101527 26 189 0.0 0.0 0.00 0.00 0.00 90 1013.2
20260831101427 26 188 0.0 0.0 0.00 0.00 0.00 90 1013.1
20260831101328 26 186 0.0 0.0 0.00 0.00 0.00 90 1013.1
20260831101227 26 186 0.0 0.0 0.00 0.00 0.00 90 1013.2
20260831101127 26 186 0.0 0.0 0.00 0.00 0.00 90 1013.2
20260831101026 26 186 0.0 0.0 0.00 0.00 0.00 90 1013.2
20260831100926 26 186 0.0 0.0 0.00 0.00 0.00 90 1013.2
20260831100827 26 186 0.0 0.0 0.00 0.00 0.00 90 1013.3
20260831100726 26 186 0.0 0.0 0.00 0.00 0.00 90 1013.3
20260831100626 26 186 0.0 0.0 0.00 0.00 0.00 90 1013.3
20260831100526 26 186 0.0 0.0 0.00 0.00 0.00 90 1013.3
20260831100427 26 186 0.0 0.0 0.00 0.00 0.00 90 1013.3
20260831100326 26 186 0.0 0.0 0.00 0.00 0.00 90 1013.2
20260831100226 26 186 0.0 0.0 0.00 0.00 0.00 90 1013.2
20260831100129 26 186 0.0 0.0 0.00 0.00 0.00 90 1013.2
20260831100025 26 186 0.0 0.0 0.00 0.00 0.00 90 1013.2
20260831095927 26 186 0.0 0.0 0.00 0.00 0.00 90 1013.2
20260831095827 26 186 0.0 0.0 0.00 0.00 0.00 90 1013.2
20260831095726 26 186 0.0 0.0 0.00 0.00 0.00 90 1013.3
20260831095626 26 186 0.0 0.0 0.00 0.00 0.00 90 1013.3
20260831095526 26 186 0.0 0.0 0.00 0.00 0.00 90 1013.3
20260831095428 26 186 0.0 0.0 0.00 0.00 0.00 90 1013.3
20260831095326 26 186 0.0 0.0 0.00 0.00 0.00 90 1013.3
20260831095225 26 186 0.0 0.0 0.00 0.00 0.00 90 1013.3
20260831095125 26 186 0.0 0.0 0.00 0.00 0.00 90 1013.3
20260831095025 26 186 0.0 0.0 0.00 0.00 0.00 90 1013.2
20260831094925 26 186 0.0 0.0 0.00 0.00 0.00 90 1013.3
20260831094826 26 186 0.0 0.0 0.00 0.00 0.00 90 1013.2
20260831094727 26 186 0.0 1.6 0.00 0.00 0.00 90 1013.2
20260831094626 26 186 0.0 3.2 0.00 0.00 0.00 90 1013.2
20260831094526 26 186 0.0 3.2 0.00 0.00 0.00 90 1013.2
20260831094428 26 186 0.0 3.2 0.00 0.00 0.00 90 1013.2
20260831094326 26 185 0.0 3.2 0.00 0.00 0.00 90 1013.2
20260831094225 26 185 0.0 3.2 0.00 0.00 0.00 90 1013.2
20260831094125 26 185 0.0 3.2 0.00 0.00 0.00 90 1013.2
20260831094026 26 185 0.0 3.2 0.00 0.00 0.00 90 1013.1
20260831093925 26 185 0.0 3.2 0.00 0.00 0.00 90 1013.1
20260831093825 26 185 1.6 3.2 0.00 0.00 0.00 89 1013.1
20260831093726 26 183 1.6 3.2 0.00 0.00 0.00 90 1013.1
20260831093625 26 182 1.6 3.2 0.00 0.00 0.00 89 1013.1
20260831093525 26 182 1.6 3.2 0.00 0.00 0.00 89 1013.0
20260831093425 26 180 1.6 3.2 0.00 0.00 0.00 89 1013.1
20260831093327 26 176 0.0 3.2 0.00 0.00 0.00 89 1013.1
20260831093225 26 176 1.6 3.2 0.00 0.00 0.00 90 1013.1
20260831093125 26 176 1.6 3.2 0.00 0.00 0.00 90 1013.1
20260831093026 26 176 0.0 1.6 0.00 0.00 0.00 90 1013.1
20260831092925 26 176 0.0 0.0 0.00 0.00 0.00 90 1013.0
20260831092825 26 176 0.0 0.0 0.00 0.00 0.00 90 1013.0
20260831092725 26 176 0.0 0.0 0.00 0.00 0.00 90 1013.0
20260831092625 26 176 0.0 0.0 0.00 0.00 0.00 90 1013.0
20260831092525 26 176 0.0 0.0 0.00 0.00 0.00 90 1013.0
20260831092426 26 176 0.0 0.0 0.00 0.00 0.00 90 1013.0
20260831092327 26 176 0.0 0.0 0.00 0.00 0.00 90 1013.1
20260831092225 26 176 0.0 0.0 0.00 0.00 0.00 89 1013.1
20260831092125 26 176 0.0 0.0 0.00 0.00 0.00 90 1013.0
20260831092026 26 176 0.0 0.0 0.00 0.00 0.00 89 1013.1
20260831091925 26 176 0.0 0.0 0.00 0.00 0.00 89 1013.0
20260831091824 26 176 0.0 0.0 0.00 0.00 0.00 89 1013.0
20260831091725 26 176 0.0 1.6 0.00 0.00 0.00 89 1013.0
20260831091625 26 176 0.0 3.2 0.00 0.00 0.00 89 1013.1
20260831091525 26 176 0.0 3.2 0.00 0.00 0.00 89 1013.0
20260831091425 26 176 0.0 3.2 0.00 0.00 0.00 89 1013.0
20260831091325 26 176 0.0 3.2 0.00 0.00 0.00 89 1013.0
20260831091224 26 176 0.0 3.2 0.00 0.00 0.00 89 1012.9
20260831091125 26 176 0.0 3.2 0.00 0.00 0.00 89 1012.9
20260831091025 26 176 0.0 3.2 0.00 0.00 0.00 89 1012.9
20260831090925 26 176 0.0 3.2 0.00 0.00 0.00 89 1013.0
20260831090824 26 176 0.0 3.2 0.00 0.00 0.00 89 1013.0
20260831090724 26 176 1.6 3.2 0.00 0.00 0.00 89 1013.0
20260831090625 26 176 1.6 3.2 0.00 0.00 0.00 89 1012.9
20260831090525 26 176 1.6 3.2 0.00 0.00 0.00 89 1012.9
20260831090426 26 176 0.0 3.2 0.00 0.00 0.00 89 1013.0
20260831090325 26 176 0.0 0.0 0.00 0.00 0.00 89 1013.0
20260831090226 26 169 0.0 0.0 0.00 0.00 0.00 89 1013.0
20260831090124 26 169 0.0 0.0 0.00 0.00 0.00 89 1013.0
20260831090025 26 169 0.0 0.0 0.00 0.00 0.00 89 1013.1
20260831085925 26 169 0.0 0.0 0.00 0.00 0.00 89 1013.1
20260831085824 26 169 0.0 0.0 0.00 0.00 0.00 89 1013.0
20260831085725 26 169 0.0 0.0 0.00 0.00 0.00 90 1013.0
20260831085625 26 169 0.0 0.0 0.00 0.00 0.00 89 1013.1
20260831085526 26 169 0.0 0.0 0.00 0.00 0.00 89 1013.1
20260831085424 26 169 0.0 0.0 0.00 0.00 0.00 90 1013.0
20260831085325 26 169 0.0 0.0 0.00 0.00 0.00 89 1013.1
20260831085225 26 169 0.0 0.0 0.00 0.00 0.00 89 1013.1
20260831085124 26 169 0.0 0.0 0.00 0.00 0.00 89 1013.1
20260831085025 26 169 0.0 0.0 0.00 0.00 0.00 89 1013.1
20260831084925 26 169 0.0 0.0 0.00 0.00 0.00 90 1013.1
20260831084825 26 169 0.0 0.0 0.00 0.00 0.00 90 1013.1
20260831084724 26 169 0.0 0.0 0.00 0.00 0.00 90 1013.1
20260831084625 26 169 0.0 0.0 0.00 0.00 0.00 90 1013.2
20260831084526 26 169 0.0 0.0 0.00 0.00 0.00 90 1013.2
20260831084425 26 169 0.0 0.0 0.00 0.00 0.00 90 1013.2
20260831084324 26 169 0.0 0.0 0.00 0.00 0.00 90 1013.2
20260831084224 26 169 0.0 0.0 0.00 0.00 0.00 90 1013.2
20260831084125 26 169 0.0 0.0 0.00 0.00 0.00 90 1013.1
20260831084024 26 169 0.0 0.0 0.00 0.00 0.00 90 1013.2
20260831083924 26 169 0.0 0.0 0.00 0.00 0.00 90 1013.3
20260831083825 26 169 0.0 0.0 0.00 0.00 0.00 90 1013.1
20260831083724 26 169 0.0 0.0 0.00 0.00 0.00 90 1013.2
20260831083624 26 169 0.0 0.0 0.00 0.00 0.00 90 1013.2
20260831083525 26 169 0.0 0.0 0.00 0.00 0.00 90 1013.2
20260831083426 26 169 0.0 0.0 0.00 0.00 0.00 90 1013.2
20260831083324 26 169 0.0 0.0 0.00 0.00 0.00 90 1013.1
20260831083224 26 169 0.0 0.0 0.00 0.00 0.00 90 1013.2
20260831083125 26 169 0.0 0.0 0.00 0.00 0.00 90 1013.3
20260831083025 26 169 0.0 0.0 0.00 0.00 0.00 90 1013.3
20260831082924 26 169 0.0 0.0 0.00 0.00 0.00 90 1013.3
20260831082823 26 169 0.0 0.0 0.00 0.00 0.00 90 1013.3
20260831082720 26 169 0.0 0.0 0.00 0.00 0.00 90 1013.3
20260831082619 26 169 0.0 0.0 0.00 0.00 0.00 90 1013.2
20260831082518 26 169 0.0 0.0 0.00 0.00 0.00 89 1013.3
20260831082417 26 169 0.0 0.0 0.00 0.00 0.00 89 1013.3
20260831082314 26 169 0.0 0.0 0.00 0.00 0.00 89 1013.2
20260831082214 26 169 0.0 0.0 0.00 0.00 0.00 89 1013.3
20260831082112 26 169 0.0 0.0 0.00 0.00 0.00 89 1013.3
20260831082009 26 169 0.0 0.0 0.00 0.00 0.00 89 1013.2
20260831081910 26 169 0.0 0.0 0.00 0.00 0.00 89 1013.3
20260831081806 26 169 0.0 0.0 0.00 0.00 0.00 89 1013.4
20260831081704 26 169 0.0 0.0 0.00 0.00 0.00 89 1013.3
20260831081603 26 169 0.0 0.0 0.00 0.00 0.00 89 1013.4
20260831081502 26 169 0.0 0.0 0.00 0.00 0.00 89 1013.4
20260831081403 26 169 0.0 0.0 0.00 0.00 0.00 89 1013.3
20260831081303 26 169 0.0 0.0 0.00 0.00 0.00 89 1013.3
20260831081201 26 169 0.0 0.0 0.00 0.00 0.00 89 1013.4
20260831081103 26 169 0.0 0.0 0.00 0.00 0.00 89 1013.3
20260831081003 26 169 0.0 0.0 0.00 0.00 0.00 89 1013.4
20260831080902 26 169 0.0 0.0 0.00 0.00 0.00 89 1013.3
20260831080803 26 169 0.0 0.0 0.00 0.00 0.00 89 1013.4
20260831080702 26 169 0.0 0.0 0.00 0.00 0.00 89 1013.5
20260831080604 26 169 0.0 0.0 0.00 0.00 0.00 89 1013.4
20260831080503 26 169 0.0 0.0 0.00 0.00 0.00 89 1013.4
20260831080401 26 169 0.0 0.0 0.00 0.00 0.00 89 1013.4
20260831080303 26 169 0.0 0.0 0.00 0.00 0.00 89 1013.3
20260831080204 26 169 0.0 0.0 0.00 0.00 0.00 89 1013.4
20260831080003 26 169 0.0 0.0 0.00 0.00 0.00 89 1013.4
20260831075903 26 169 0.0 0.0 0.00 0.00 0.00 89 1013.4
20260831075802 26 169 0.0 0.0 0.00 0.00 0.00 88 1013.4
20260831075703 26 169 0.0 0.0 0.00 0.00 0.00 88 1013.4
20260831075603 26 169 0.0 0.0 0.00 0.00 0.00 88 1013.4
20260831075501 26 169 0.0 0.0 0.00 0.00 0.00 88 1013.4
20260831075402 26 169 0.0 0.0 0.00 0.00 0.00 88 1013.4
20260831075306 26 169 0.0 0.0 0.00 0.00 0.00 88 1013.4
20260831075203 27 169 0.0 0.0 0.00 0.00 0.00 88 1013.3
20260831075103 27 169 0.0 0.0 0.00 0.00 0.00 88 1013.4
20260831075004 27 169 0.0 0.0 0.00 0.00 0.00 88 1013.3
20260831074902 27 169 0.0 0.0 0.00 0.00 0.00 88 1013.4
20260831074802 27 169 0.0 0.0 0.00 0.00 0.00 88 1013.4
20260831074702 27 169 0.0 0.0 0.00 0.00 0.00 88 1013.3
20260831074603 27 169 0.0 0.0 0.00 0.00 0.00 88 1013.3
20260831074504 27 169 0.0 0.0 0.00 0.00 0.00 88 1013.4
20260831074401 27 169 0.0 0.0 0.00 0.00 0.00 87 1013.4
20260831074303 27 169 0.0 0.0 0.00 0.00 0.00 87 1013.4
20260831074202 27 169 0.0 1.6 0.00 0.00 0.00 87 1013.4
20260831074103 27 169 0.0 1.6 0.00 0.00 0.00 87 1013.4
20260831074002 27 169 0.0 1.6 0.00 0.00 0.00 86 1013.4
20260831073903 27 169 0.0 1.6 0.00 0.00 0.00 86 1013.5
20260831073802 27 169 0.0 3.2 0.00 0.00 0.00 86 1013.5
20260831073702 27 169 0.0 3.2 0.00 0.00 0.00 86 1013.5
20260831073604 27 169 0.0 3.2 0.00 0.00 0.00 86 1013.5
20260831073504 27 169 0.0 3.2 0.00 0.00 0.00 86 1013.4
20260831073402 27 169 0.0 3.2 0.00 0.00 0.00 86 1013.5
20260831073302 27 169 0.0 3.2 0.00 0.00 0.00 86 1013.5
20260831073203 27 169 0.0 3.2 0.00 0.00 0.00 86 1013.4
20260831073102 27 169 0.0 3.2 0.00 0.00 0.00 86 1013.4
20260831073004 27 62 0.0 3.2 0.00 0.00 0.00 86 1013.4
20260831072903 27 59 1.6 4.8 0.00 0.00 0.00 86 1013.4
20260831072802 27 59 1.6 4.8 0.00 0.00 0.00 86 1013.5
20260831072702 27 59 1.6 4.8 0.00 0.00 0.00 86 1013.3
20260831072603 27 58 0.0 4.8 0.00 0.00 0.00 86 1013.3
20260831072503 27 59 1.6 4.8 0.00 0.00 0.00 86 1013.4
20260831072403 27 59 1.6 4.8 0.00 0.00 0.00 86 1013.4
20260831072306 27 59 1.6 4.8 0.00 0.00 0.00 86 1013.4
20260831072203 27 59 1.6 4.8 0.00 0.00 0.00 86 1013.4
20260831072102 27 61 1.6 4.8 0.00 0.00 0.00 86 1013.4
20260831072003 27 58 1.6 4.8 0.00 0.00 0.00 86 1013.5
20260831071902 27 56 1.6 4.8 0.00 0.00 0.00 86 1013.5
20260831071803 27 56 1.6 4.8 0.00 0.00 0.00 86 1013.4
20260831071702 27 56 1.6 4.8 0.00 0.00 0.00 86 1013.4
20260831071602 27 58 1.6 6.4 0.00 0.00 0.00 86 1013.4
20260831071503 27 58 0.0 6.4 0.00 0.00 0.00 86 1013.4
20260831071403 27 62 0.0 6.4 0.00 0.00 0.00 86 1013.5
20260831071302 27 61 1.6 6.4 0.00 0.00 0.00 86 1013.4
20260831071204 27 62 0.0 6.4 0.00 0.00 0.00 86 1013.4
20260831071103 27 55 0.0 6.4 0.00 0.00 0.00 86 1013.4
20260831071003 27 54 0.0 6.4 0.00 0.00 0.00 86 1013.4
20260831070904 27 54 1.6 6.4 0.00 0.00 0.00 86 1013.4
20260831070803 27 63 1.6 6.4 0.00 0.00 0.00 86 1013.3
20260831070702 27 0 1.6 6.4 0.00 0.00 0.00 86 1013.4
20260831070601 27 56 0.0 0.0 0.00 0.00 0.00 87 1013.4
20260831070505 27 71 0.0 0.0 0.00 0.00 0.00 87 1013.4
20260831070403 27 72 0.0 0.0 0.00 0.00 0.00 87 1013.4
20260831070301 27 58 0.0 0.0 0.00 0.00 0.00 87 1013.3
20260831070202 27 55 0.0 0.0 0.00 0.00 0.00 87 1013.4
20260831070001 27 55 0.0 0.0 0.00 0.00 0.00 87 1013.4
20260831065901 27 55 0.0 0.0 0.00 0.00 0.00 87 1013.4
20260831065804 27 56 0.0 0.0 0.00 0.00 0.00 87 1013.5
20260831065702 27 56 0.0 0.0 0.00 0.00 0.00 87 1013.4
20260831065602 27 55 0.0 0.0 0.00 0.00 0.00 87 1013.4
20260831065504 27 148 0.0 0.0 0.00 0.00 0.00 86 1013.5
20260831065403 27 152 0.0 0.0 0.00 0.00 0.00 87 1013.4
20260831065306 27 152 0.0 0.0 0.00 0.00 0.00 87 1013.5
20260831065204 27 154 0.0 0.0 0.00 0.00 0.00 87 1013.4
20260831065104 27 154 0.0 0.0 0.00 0.00 0.00 86 1013.5
20260831065001 27 154 0.0 0.0 0.00 0.00 0.00 86 1013.5
20260831064901 27 154 0.0 0.0 0.00 0.00 0.00 86 1013.6
20260831064803 27 149 0.0 3.2 0.00 0.00 0.00 86 1013.5
20260831064703 27 149 0.0 3.2 0.00 0.00 0.00 86 1013.6
20260831064602 27 151 0.0 3.2 0.00 0.00 0.00 86 1013.5
20260831064502 27 157 0.0 3.2 0.00 0.00 0.00 86 1013.6
20260831064403 27 158 0.0 3.2 0.00 0.00 0.00 86 1013.6
20260831064302 27 158 0.0 3.2 0.00 0.00 0.00 86 1013.5
20260831064202 27 158 0.0 3.2 0.00 0.00 0.00 86 1013.5
20260831064104 27 158 0.0 3.2 0.00 0.00 0.00 86 1013.5
20260831064003 27 157 0.0 3.2 0.00 0.00 0.00 86 1013.6
20260831063903 27 157 1.6 3.2 0.00 0.00 0.00 86 1013.6
20260831063802 27 157 0.0 4.8 0.00 0.00 0.00 85 1013.6
20260831063702 27 138 1.6 6.4 0.00 0.00 0.00 85 1013.6
20260831063603 27 161 0.0 6.4 0.00 0.00 0.00 85 1013.7
20260831063502 27 162 0.0 6.4 0.00 0.00 0.00 85 1013.7
20260831063403 27 164 0.0 6.4 0.00 0.00 0.00 85 1013.6
20260831063302 27 164 1.6 6.4 0.00 0.00 0.00 85 1013.6
20260831063202 27 164 0.0 6.4 0.00 0.00 0.00 85 1013.6
20260831063103 27 164 0.0 6.4 0.00 0.00 0.00 85 1013.6
20260831063003 27 164 1.6 6.4 0.00 0.00 0.00 85 1013.5
20260831062903 27 164 3.2 6.4 0.00 0.00 0.00 85 1013.6
20260831062802 27 172 3.2 8.0 0.00 0.00 0.00 85 1013.6
20260831062703 27 175 0.0 8.0 0.00 0.00 0.00 85 1013.6
20260831062602 27 169 1.6 8.0 0.00 0.00 0.00 85 1013.6
20260831062502 27 171 3.2 8.0 0.00 0.00 0.00 85 1013.6
20260831062403 28 176 3.2 8.0 0.00 0.00 0.00 84 1013.5
20260831062305 28 171 3.2 8.0 0.00 0.00 0.00 84 1013.6
20260831062202 28 172 3.2 8.0 0.00 0.00 0.00 84 1013.6
20260831062102 28 173 4.8 8.0 0.00 0.00 0.00 84 1013.5
20260831062004 28 182 4.8 8.0 0.00 0.00 0.00 84 1013.6
20260831061902 28 173 4.8 8.0 0.00 0.00 0.00 84 1013.6
20260831061803 28 186 4.8 8.0 0.00 0.00 0.00 84 1013.6
20260831061703 28 182 3.2 8.0 0.00 0.00 0.00 84 1013.6
20260831061603 28 179 3.2 8.0 0.00 0.00 0.00 84 1013.6
20260831061503 28 159 3.2 8.0 0.00 0.00 0.00 84 1013.6
20260831061404 28 175 3.2 8.0 0.00 0.00 0.00 84 1013.5
20260831061302 28 183 3.2 8.0 0.00 0.00 0.00 84 1013.5
20260831061202 28 172 3.2 8.0 0.00 0.00 0.00 84 1013.6
20260831061102 28 168 3.2 8.0 0.00 0.00 0.00 84 1013.5
20260831061003 28 168 3.2 8.0 0.00 0.00 0.00 84 1013.5
20260831060902 28 196 3.2 8.0 0.00 0.00 0.00 84 1013.6
20260831060800 28 169 4.8 8.0 0.00 0.00 0.00 84 1013.6
20260831060659 28 165 3.2 8.0 0.00 0.00 0.00 84 1013.5
20260831060556 28 188 3.2 8.0 0.00 0.00 0.00 84 1013.6
20260831060455 28 179 3.2 8.0 0.00 0.00 0.00 84 1013.6
20260831060354 28 183 3.2 8.0 0.00 0.00 0.00 84 1013.6
20260831060252 28 169 3.2 8.0 0.00 0.00 0.00 84 1013.5
20260831060151 28 200 3.2 8.0 0.00 0.00 0.00 84 1013.6
20260831060051 28 188 3.2 8.0 0.00 0.00 0.00 84 1013.6
20260831055949 28 162 3.2 8.0 0.00 0.00 0.00 84 1013.5
20260831055846 28 172 3.2 8.0 0.00 0.00 0.00 84 1013.6
20260831055745 28 172 3.2 8.0 0.00 0.00 0.00 84 1013.5
20260831055643 28 165 3.2 8.0 0.00 0.00 0.00 84 1013.6
20260831055542 28 180 1.6 6.4 0.00 0.00 0.00 84 1013.6
20260831055442 28 158 3.2 6.4 0.00 0.00 0.00 84 1013.7
20260831055340 28 159 4.8 6.4 0.00 0.00 0.00 84 1013.6
20260831055238 28 169 4.8 6.4 0.00 0.00 0.00 84 1013.6
20260831055137 28 155 3.2 6.4 0.00 0.00 0.00 84 1013.6
20260831055035 28 173 3.2 6.4 0.00 0.00 0.00 84 1013.6
20260831054933 28 178 1.6 6.4 0.00 0.00 0.00 84 1013.6
20260831054831 28 185 3.2 6.4 0.00 0.00 0.00 84 1013.6
20260831054731 28 183 3.2 6.4 0.00 0.00 0.00 84 1013.6
20260831054631 28 178 3.2 6.4 0.00 0.00 0.00 84 1013.6
20260831054532 28 175 3.2 6.4 0.00 0.00 0.00 84 1013.6
20260831054431 28 173 3.2 6.4 0.00 0.00 0.00 84 1013.6
20260831054332 28 165 3.2 6.4 0.00 0.00 0.00 84 1013.6
20260831054234 28 173 3.2 6.4 0.00 0.00 0.00 84 1013.6
20260831054131 28 180 3.2 6.4 0.00 0.00 0.00 84 1013.7
20260831054032 28 183 3.2 6.4 0.00 0.00 0.00 84 1013.7
20260831053931 28 180 3.2 6.4 0.00 0.00 0.00 84 1013.7
20260831053833 28 185 3.2 6.4 0.00 0.00 0.00 84 1013.7
20260831053731 28 144 1.6 6.4 0.00 0.00 0.00 84 1013.6
20260831053632 28 141 1.6 6.4 0.00 0.00 0.00 84 1013.6
20260831053533 28 138 1.6 6.4 0.00 0.00 0.00 84 1013.7
20260831053432 28 135 3.2 6.4 0.00 0.00 0.00 85 1013.7
20260831053331 27 142 3.2 6.4 0.00 0.00 0.00 84 1013.6
20260831053228 27 173 3.2 4.8 0.00 0.00 0.00 84 1013.7
20260831053125 27 169 3.2 4.8 0.00 0.00 0.00 84 1013.6
20260831053026 27 118 3.2 4.8 0.00 0.00 0.00 84 1013.6
20260831052925 27 124 1.6 8.0 0.00 0.00 0.00 84 1013.6
20260831052822 27 123 1.6 8.0 0.00 0.00 0.00 84 1013.6
20260831052721 28 118 1.6 8.0 0.00 0.00 0.00 84 1013.6
20260831052620 28 138 1.6 8.0 0.00 0.00 0.00 84 1013.5
20260831052520 28 141 0.0 8.0 0.00 0.00 0.00 84 1013.5
20260831052420 28 142 0.0 8.0 0.00 0.00 0.00 84 1013.6
20260831052320 28 142 1.6 8.0 0.00 0.00 0.00 84 1013.5
20260831052221 28 144 1.6 8.0 0.00 0.00 0.00 84 1013.5
20260831052120 28 147 3.2 8.0 0.00 0.00 0.00 84 1013.6
20260831052020 28 176 1.6 8.0 0.00 0.00 0.00 84 1013.5
20260831051919 28 147 1.6 8.0 0.00 0.00 0.00 84 1013.6
20260831051819 28 151 3.2 8.0 0.00 0.00 0.00 84 1013.5
20260831051721 28 147 3.2 8.0 0.00 0.00 0.00 84 1013.5
20260831051621 28 149 3.2 8.0 0.00 0.00 0.00 84 1013.5
20260831051519 28 131 3.2 8.0 0.00 0.00 0.00 84 1013.5
20260831051419 28 183 1.6 8.0 0.00 0.00 0.00 84 1013.5
20260831051321 28 135 1.6 6.4 0.00 0.00 0.00 84 1013.5
20260831051220 28 134 3.2 6.4 0.00 0.00 0.00 84 1013.4
20260831051119 28 131 3.2 6.4 0.00 0.00 0.00 84 1013.4
20260831051020 28 140 3.2 6.4 0.00 0.00 0.00 84 1013.5
20260831050921 28 121 3.2 6.4 0.00 0.00 0.00 84 1013.5
20260831050819 28 107 3.2 6.4 0.00 0.00 0.00 84 1013.5
20260831050719 28 148 3.2 6.4 0.00 0.00 0.00 84 1013.4
20260831050621 28 131 3.2 6.4 0.00 0.00 0.00 84 1013.4
20260831050519 28 148 3.2 6.4 0.00 0.00 0.00 84 1013.4
20260831050419 28 138 3.2 6.4 0.00 0.00 0.00 84 1013.4
20260831050320 28 140 1.6 6.4 0.00 0.00 0.00 84 1013.4
20260831050222 28 140 1.6 4.8 0.00 0.00 0.00 84 1013.4
20260831050119 28 124 1.6 4.8 0.00 0.00 0.00 84 1013.4
20260831050019 28 121 1.6 8.0 0.00 0.00 0.00 84 1013.3
20260831045919 28 121 1.6 8.0 0.00 0.00 0.00 83 1013.3
20260831045820 28 141 0.0 8.0 0.00 0.00 0.00 83 1013.4
20260831045719 28 144 0.0 8.0 0.00 0.00 0.00 83 1013.4
20260831045619 28 145 0.0 8.0 0.00 0.00 0.00 83 1013.4
20260831045518 28 145 0.0 8.0 0.00 0.00 0.00 83 1013.5
20260831045418 28 171 0.0 8.0 0.00 0.00 0.00 83 1013.4
20260831045320 28 173 0.0 8.0 0.00 0.00 0.00 83 1013.4
20260831045219 28 176 3.2 8.0 0.00 0.00 0.00 83 1013.4
20260831045119 28 183 3.2 8.0 0.00 0.00 0.00 83 1013.4
20260831045018 28 138 0.0 4.8 0.00 0.00 0.00 83 1013.4
20260831044919 28 161 0.0 4.8 0.00 0.00 0.00 83 1013.3
20260831044819 28 161 1.6 4.8 0.00 0.00 0.00 83 1013.4
20260831044720 28 161 1.6 4.8 0.00 0.00 0.00 82 1013.4
20260831044620 28 148 0.0 4.8 0.00 0.00 0.00 82 1013.4
20260831044519 28 157 1.6 4.8 0.00 0.00 0.00 82 1013.4
20260831044418 28 158 1.6 6.4 0.00 0.00 0.00 82 1013.4
20260831044319 28 137 0.0 9.7 0.00 0.00 0.00 82 1013.4
20260831044219 28 137 1.6 11.3 0.00 0.00 0.00 82 1013.4
20260831044119 28 147 1.6 11.3 0.00 0.00 0.00 82 1013.4
20260831044019 28 135 1.6 11.3 0.00 0.00 0.00 82 1013.4
20260831043919 28 94 1.6 11.3 0.00 0.00 0.00 82 1013.3
20260831043819 28 94 1.6 11.3 0.00 0.00 0.00 82 1013.3
20260831043719 28 76 1.6 11.3 0.00 0.00 0.00 82 1013.4
20260831043620 28 72 3.2 11.3 0.00 0.00 0.00 82 1013.3
20260831043519 28 113 3.2 11.3 0.00 0.00 0.00 82 1013.3
20260831043418 28 164 4.8 11.3 0.00 0.00 0.00 82 1013.3
20260831043318 28 152 6.4 11.3 0.00 0.00 0.00 82 1013.2
20260831043218 28 125 4.8 9.7 0.00 0.00 0.00 82 1013.1
20260831043118 28 134 3.2 9.7 0.00 0.00 0.00 82 1013.3
20260831043018 28 192 3.2 9.7 0.00 0.00 0.00 82 1013.3
20260831042918 28 169 4.8 9.7 0.00 0.00 0.00 82 1013.2
20260831042819 28 200 3.2 9.7 0.00 0.00 0.00 82 1013.3
20260831042718 28 178 3.2 9.7 0.00 0.00 0.00 82 1013.3
20260831042619 28 134 4.8 9.7 0.00 0.00 0.00 82 1013.3
20260831042519 28 180 4.8 9.7 0.00 0.00 0.00 81 1013.3
20260831042418 28 127 4.8 9.7 0.00 0.00 0.00 81 1013.3
20260831042319 28 147 3.2 8.0 0.00 0.00 0.00 81 1013.2
20260831042218 28 171 3.2 8.0 0.00 0.00 0.00 81 1013.3
20260831042119 28 109 3.2 9.7 0.00 0.00 0.00 81 1013.2
20260831042018 28 185 3.2 9.7 0.00 0.00 0.00 81 1013.2
20260831041918 28 176 4.8 9.7 0.00 0.00 0.00 81 1013.2
20260831041819 28 165 4.8 9.7 0.00 0.00 0.00 81 1013.1
20260831041719 28 157 4.8 9.7 0.00 0.00 0.00 81 1013.2
20260831041618 28 151 6.4 9.7 0.00 0.00 0.00 81 1013.2
20260831041519 28 165 4.8 9.7 0.00 0.00 0.00 81 1013.2
20260831041420 28 116 3.2 9.7 0.00 0.00 0.00 81 1013.2
20260831041318 28 135 3.2 9.7 0.00 0.00 0.00 81 1013.2
20260831041219 28 172 4.8 9.7 0.00 0.00 0.00 81 1013.2
20260831041119 28 127 4.8 9.7 0.00 0.00 0.00 81 1013.2
20260831041019 28 176 4.8 9.7 0.00 0.00 0.00 81 1013.2
20260831040918 28 104 4.8 9.7 0.00 0.00 0.00 81 1013.2
20260831040819 28 125 4.8 9.7 0.00 0.00 0.00 80 1013.2